Observation data for Fort Chadbourne on 09/12/2017      Previous  Date       Current Mesonet Observations  Soil Data  Daily Summary Page  Observations in Plain Language
KCH1 120500Z 33001KT 20/11 A3007 RMK A01 T01970105  RH  055%=      5-min Rain = 0
KCH1 120501Z 33001KT 20/10 A3007 RMK A01 T01970104  RH  055%=      5-min Rain = 0
KCH1 120502Z 34001KT 20/10 A3007 RMK A01 T01970104  RH  055%=      5-min Rain = 0
KCH1 120503Z 34001KT 20/11 A3007 RMK A01 T01970105  RH  055%=      5-min Rain = 0
KCH1 120504Z 34001KT 20/11 A3007 RMK A01 T01970105  RH  055%=      5-min Rain = 0
KCH1 120505Z 34001KT 20/11 A3007 RMK A01 T01970105  RH  055%=      5-min Rain = 0
KCH1 120506Z 34001KT 20/11 A3007 RMK A01 T01970105  RH  055%=      5-min Rain = 0
KCH1 120507Z 33002KT 20/11 A3007 RMK A01 T01960106  RH  056%=      5-min Rain = 0
KCH1 120508Z 33002KT 20/11 A3007 RMK A01 T01960106  RH  056%=      5-min Rain = 0
KCH1 120509Z 33002KT 20/11 A3007 RMK A01 T01960106  RH  056%=      5-min Rain = 0
KCH1 120510Z 34002KT 20/11 A3007 RMK A01 T01960107  RH  056%=      5-min Rain = 0
KCH1 120511Z 33002KT 20/11 A3007 RMK A01 T01960107  RH  056%=      5-min Rain = 0
KCH1 120512Z 32002KT 20/11 A3007 RMK A01 T01970106  RH  056%=      5-min Rain = 0
KCH1 120513Z 32002KT 20/11 A3007 RMK A01 T01970106  RH  056%=      5-min Rain = 0
KCH1 120514Z 32002KT 20/11 A3007 RMK A01 T01980107  RH  055%=      5-min Rain = 0
KCH1 120515Z 33002KT 20/11 A3007 RMK A01 T01990107  RH  055%=      5-min Rain = 0
KCH1 120516Z 33002KT 20/11 A3007 RMK A01 T01990109  RH  056%=      5-min Rain = 0
KCH1 120517Z 32002KT 20/11 A3007 RMK A01 T01990111  RH  057%=      5-min Rain = 0
KCH1 120518Z 33002KT 20/11 A3007 RMK A01 T01990114  RH  058%=      5-min Rain = 0
KCH1 120519Z 32002KT 20/12 A3007 RMK A01 T01980116  RH  059%=      5-min Rain = 0
KCH1 120520Z 32002KT 20/12 A3007 RMK A01 T01970119  RH  060%=      5-min Rain = 0
KCH1 120521Z 32002KT 20/13 A3007 RMK A01 T01960125  RH  064%=      5-min Rain = 0
KCH1 120522Z 32003KT 19/13 A3007 RMK A01 T01940126  RH  065%=      5-min Rain = 0
KCH1 120523Z 31003KT 19/13 A3007 RMK A01 T01930133  RH  068%=      5-min Rain = 0
KCH1 120524Z 31003KT 19/14 A3007 RMK A01 T01930137  RH  070%=      5-min Rain = 0
KCH1 120525Z 31003KT 19/14 A3007 RMK A01 T01930138  RH  071%=      5-min Rain = 0
KCH1 120526Z 31003KT 19/14 A3007 RMK A01 T01930139  RH  071%=      5-min Rain = 0
KCH1 120527Z 31003KT 19/14 A3007 RMK A01 T01930140  RH  071%=      5-min Rain = 0
KCH1 120528Z 31003KT 19/14 A3007 RMK A01 T01920140  RH  072%=      5-min Rain = 0
KCH1 120529Z 31003KT 19/14 A3007 RMK A01 T01920140  RH  072%=      5-min Rain = 0
KCH1 120530Z 31003KT 19/14 A3007 RMK A01 T01910139  RH  072%=      5-min Rain = 0
KCH1 120531Z 31003KT 19/14 A3007 RMK A01 T01900140  RH  073%=      5-min Rain = 0
KCH1 120532Z 31004KT 19/14 A3007 RMK A01 T01890141  RH  073%=      5-min Rain = 0
KCH1 120533Z 31004KT 19/14 A3007 RMK A01 T01890141  RH  074%=      5-min Rain = 0
KCH1 120534Z 31004KT 19/14 A3007 RMK A01 T01880142  RH  074%=      5-min Rain = 0
KCH1 120535Z 31004KT 19/14 A3007 RMK A01 T01880141  RH  074%=      5-min Rain = 0
KCH1 120536Z 31004KT 19/14 A3007 RMK A01 T01870141  RH  074%=      5-min Rain = 0
KCH1 120537Z 31003KT 19/14 A3007 RMK A01 T01870141  RH  075%=      5-min Rain = 0
KCH1 120538Z 31004KT 19/14 A3007 RMK A01 T01860142  RH  075%=      5-min Rain = 0
KCH1 120539Z 31004KT 19/14 A3007 RMK A01 T01860142  RH  076%=      5-min Rain = 0
KCH1 120540Z 31004KT 19/14 A3007 RMK A01 T01860142  RH  076%=      5-min Rain = 0
KCH1 120541Z 31003KT 19/14 A3007 RMK A01 T01850142  RH  076%=      5-min Rain = 0
KCH1 120542Z 31003KT 18/14 A3007 RMK A01 T01840142  RH  076%=      5-min Rain = 0
KCH1 120543Z 31003KT 18/14 A3007 RMK A01 T01830141  RH  076%=      5-min Rain = 0
KCH1 120544Z 31003KT 18/14 A3007 RMK A01 T01830142  RH  077%=      5-min Rain = 0
KCH1 120545Z 31003KT 18/14 A3007 RMK A01 T01830142  RH  077%=      5-min Rain = 0
KCH1 120546Z 31003KT 18/14 A3006 RMK A01 T01830142  RH  077%=      5-min Rain = 0
KCH1 120547Z 31003KT 18/14 A3006 RMK A01 T01820142  RH  077%=      5-min Rain = 0
KCH1 120548Z 31003KT 18/14 A3006 RMK A01 T01820142  RH  077%=      5-min Rain = 0
KCH1 120549Z 31003KT 18/14 A3006 RMK A01 T01820142  RH  077%=      5-min Rain = 0
KCH1 120550Z 30003KT 18/14 A3006 RMK A01 T01810142  RH  078%=      5-min Rain = 0
KCH1 120551Z 31003KT 18/14 A3006 RMK A01 T01810141  RH  078%=      5-min Rain = 0
KCH1 120552Z 31004KT 18/14 A3006 RMK A01 T01800142  RH  078%=      5-min Rain = 0
KCH1 120553Z 31004KT 18/14 A3006 RMK A01 T01800142  RH  078%=      5-min Rain = 0
KCH1 120554Z 30003KT 18/14 A3006 RMK A01 T01800142  RH  078%=      5-min Rain = 0
KCH1 120555Z 31004KT 18/14 A3006 RMK A01 T01790142  RH  079%=      5-min Rain = 0
KCH1 120556Z 31004KT 18/14 A3006 RMK A01 T01790142  RH  079%=      5-min Rain = 0
KCH1 120557Z 30004KT 18/14 A3006 RMK A01 T01790141  RH  079%=      5-min Rain = 0
KCH1 120558Z 31004KT 18/14 A3006 RMK A01 T01780141  RH  079%=      5-min Rain = 0
KCH1 120559Z 31004KT 18/14 A3006 RMK A01 T01780141  RH  079%=      5-min Rain = 0
KCH1 120600Z 31003KT 18/14 A3006 RMK A01 T01770141  RH  079%=      5-min Rain = 0
KCH1 120601Z 31004KT 18/14 A3006 RMK A01 T01770141  RH  079%=      5-min Rain = 0
KCH1 120602Z 31004KT 18/14 A3006 RMK A01 T01770141  RH  079%=      5-min Rain = 0
KCH1 120603Z 31004KT 18/14 A3006 RMK A01 T01770141  RH  079%=      5-min Rain = 0
KCH1 120604Z 31004KT 18/14 A3006 RMK A01 T01770140  RH  079%=      5-min Rain = 0
KCH1 120605Z 31004KT 18/14 A3006 RMK A01 T01760140  RH  079%=      5-min Rain = 0
KCH1 120606Z 31004KT 18/14 A3006 RMK A01 T01760141  RH  079%=      5-min Rain = 0
KCH1 120607Z 31003KT 18/14 A3006 RMK A01 T01760140  RH  079%=      5-min Rain = 0
KCH1 120608Z 31003KT 18/14 A3006 RMK A01 T01760140  RH  080%=      5-min Rain = 0
KCH1 120609Z 31003KT 18/14 A3006 RMK A01 T01750140  RH  080%=      5-min Rain = 0
KCH1 120610Z 31003KT 18/14 A3006 RMK A01 T01750139  RH  079%=      5-min Rain = 0
KCH1 120611Z 31003KT 18/14 A3006 RMK A01 T01750139  RH  079%=      5-min Rain = 0
KCH1 120612Z 30003KT 18/14 A3006 RMK A01 T01750139  RH  079%=      5-min Rain = 0
KCH1 120613Z 30003KT 18/14 A3006 RMK A01 T01750138  RH  079%=      5-min Rain = 0
KCH1 120614Z 31003KT 18/14 A3006 RMK A01 T01750138  RH  079%=      5-min Rain = 0
KCH1 120615Z 30003KT 18/14 A3006 RMK A01 T01750138  RH  079%=      5-min Rain = 0
KCH1 120616Z 30004KT 18/14 A3006 RMK A01 T01750138  RH  079%=      5-min Rain = 0
KCH1 120617Z 30004KT 18/14 A3006 RMK A01 T01750138  RH  079%=      5-min Rain = 0
KCH1 120618Z 30004KT 18/14 A3006 RMK A01 T01750137  RH  079%=      5-min Rain = 0
KCH1 120619Z 30004KT 18/14 A3006 RMK A01 T01750138  RH  079%=      5-min Rain = 0
KCH1 120620Z 30004KT 18/14 A3006 RMK A01 T01750137  RH  079%=      5-min Rain = 0
KCH1 120621Z 30004KT 17/14 A3006 RMK A01 T01740137  RH  079%=      5-min Rain = 0
KCH1 120622Z 30004KT 17/14 A3006 RMK A01 T01740137  RH  079%=      5-min Rain = 0
KCH1 120623Z 30005KT 17/14 A3006 RMK A01 T01740138  RH  079%=      5-min Rain = 0
KCH1 120624Z 30004KT 17/14 A3006 RMK A01 T01740138  RH  079%=      5-min Rain = 0
KCH1 120625Z 30005KT 17/14 A3006 RMK A01 T01740138  RH  079%=      5-min Rain = 0
KCH1 120626Z 30005KT 17/14 A3006 RMK A01 T01740138  RH  079%=      5-min Rain = 0
KCH1 120627Z 30004KT 17/14 A3006 RMK A01 T01740138  RH  079%=      5-min Rain = 0
KCH1 120628Z 30004KT 17/14 A3006 RMK A01 T01740138  RH  079%=      5-min Rain = 0
KCH1 120629Z 30005KT 17/14 A3006 RMK A01 T01730138  RH  080%=      5-min Rain = 0
KCH1 120630Z 30005KT 17/14 A3006 RMK A01 T01740138  RH  080%=      5-min Rain = 0
KCH1 120631Z 30004KT 17/14 A3006 RMK A01 T01730138  RH  080%=      5-min Rain = 0
KCH1 120632Z 30005KT 17/14 A3006 RMK A01 T01730137  RH  080%=      5-min Rain = 0
KCH1 120633Z 30004KT 17/14 A3006 RMK A01 T01730137  RH  080%=      5-min Rain = 0
KCH1 120634Z 30005KT 17/14 A3006 RMK A01 T01730137  RH  080%=      5-min Rain = 0
KCH1 120635Z 30004KT 17/14 A3006 RMK A01 T01720137  RH  080%=      5-min Rain = 0
KCH1 120636Z 30004KT 17/14 A3006 RMK A01 T01720137  RH  080%=      5-min Rain = 0
KCH1 120637Z 30004KT 17/14 A3006 RMK A01 T01720137  RH  080%=      5-min Rain = 0
KCH1 120638Z 30004KT 17/14 A3006 RMK A01 T01720137  RH  080%=      5-min Rain = 0
KCH1 120639Z 30004KT 17/14 A3006 RMK A01 T01720137  RH  080%=      5-min Rain = 0
KCH1 120640Z 30004KT 17/14 A3006 RMK A01 T01720137  RH  080%=      5-min Rain = 0
KCH1 120641Z 30004KT 17/14 A3006 RMK A01 T01720137  RH  080%=      5-min Rain = 0
KCH1 120642Z 30005KT 17/14 A3006 RMK A01 T01720136  RH  080%=      5-min Rain = 0
KCH1 120643Z 30005KT 17/14 A3005 RMK A01 T01720136  RH  079%=      5-min Rain = 0
KCH1 120644Z 29004KT 17/14 A3005 RMK A01 T01720136  RH  079%=      5-min Rain = 0
KCH1 120645Z 29005KT 17/14 A3005 RMK A01 T01710135  RH  079%=      5-min Rain = 0
KCH1 120646Z 30005KT 17/13 A3005 RMK A01 T01710134  RH  079%=      5-min Rain = 0
KCH1 120647Z 30005KT 17/13 A3005 RMK A01 T01710134  RH  079%=      5-min Rain = 0
KCH1 120648Z 30005KT 17/13 A3005 RMK A01 T01710133  RH  079%=      5-min Rain = 0
KCH1 120649Z 30005KT 17/13 A3005 RMK A01 T01710133  RH  078%=      5-min Rain = 0
KCH1 120650Z 30005KT 17/13 A3006 RMK A01 T01710132  RH  078%=      5-min Rain = 0
KCH1 120651Z 30005KT 17/13 A3006 RMK A01 T01710132  RH  078%=      5-min Rain = 0
KCH1 120652Z 30005KT 17/13 A3006 RMK A01 T01700132  RH  078%=      5-min Rain = 0
KCH1 120653Z 30004KT 17/13 A3006 RMK A01 T01700131  RH  078%=      5-min Rain = 0
KCH1 120654Z 30005KT 17/13 A3006 RMK A01 T01700131  RH  078%=      5-min Rain = 0
KCH1 120655Z 30005KT 17/13 A3006 RMK A01 T01700131  RH  078%=      5-min Rain = 0
KCH1 120656Z 30005KT 17/13 A3006 RMK A01 T01690130  RH  078%=      5-min Rain = 0
KCH1 120657Z 30005KT 17/13 A3006 RMK A01 T01700130  RH  077%=      5-min Rain = 0
KCH1 120658Z 30005KT 17/13 A3006 RMK A01 T01700129  RH  077%=      5-min Rain = 0
KCH1 120659Z 30005KT 17/13 A3006 RMK A01 T01700129  RH  077%=      5-min Rain = 0
KCH1 120700Z 30005KT 17/13 A3006 RMK A01 T01700129  RH  077%=      5-min Rain = 0
KCH1 120701Z 30005KT 17/13 A3006 RMK A01 T01700129  RH  077%=      5-min Rain = 0
KCH1 120702Z 30005KT 17/13 A3006 RMK A01 T01700129  RH  077%=      5-min Rain = 0
KCH1 120703Z 30004KT 17/13 A3006 RMK A01 T01700129  RH  077%=      5-min Rain = 0
KCH1 120704Z 30005KT 17/13 A3005 RMK A01 T01700129  RH  077%=      5-min Rain = 0
KCH1 120705Z 30005KT 17/13 A3005 RMK A01 T01690129  RH  077%=      5-min Rain = 0
KCH1 120706Z 30006KT 17/13 A3005 RMK A01 T01690128  RH  077%=      5-min Rain = 0
KCH1 120707Z 30006KT 17/13 A3005 RMK A01 T01690128  RH  077%=      5-min Rain = 0
KCH1 120708Z 30005KT 17/13 A3005 RMK A01 T01690128  RH  077%=      5-min Rain = 0
KCH1 120709Z 30004KT 17/13 A3005 RMK A01 T01690128  RH  077%=      5-min Rain = 0
KCH1 120710Z 30004KT 17/13 A3005 RMK A01 T01690128  RH  077%=      5-min Rain = 0
KCH1 120711Z 30004KT 17/13 A3005 RMK A01 T01690127  RH  076%=      5-min Rain = 0
KCH1 120712Z 31004KT 17/13 A3006 RMK A01 T01690127  RH  076%=      5-min Rain = 0
KCH1 120713Z 30004KT 17/13 A3006 RMK A01 T01690127  RH  076%=      5-min Rain = 0
KCH1 120714Z 31004KT 17/13 A3006 RMK A01 T01690128  RH  077%=      5-min Rain = 0
KCH1 120715Z 31004KT 17/13 A3006 RMK A01 T01690128  RH  077%=      5-min Rain = 0
KCH1 120716Z 31004KT 17/13 A3006 RMK A01 T01690128  RH  077%=      5-min Rain = 0
KCH1 120717Z 30004KT 17/13 A3005 RMK A01 T01680128  RH  077%=      5-min Rain = 0
KCH1 120718Z 31004KT 17/13 A3005 RMK A01 T01690129  RH  077%=      5-min Rain = 0
KCH1 120719Z 30004KT 17/13 A3005 RMK A01 T01690129  RH  077%=      5-min Rain = 0
KCH1 120720Z 31004KT 17/13 A3005 RMK A01 T01690129  RH  077%=      5-min Rain = 0
KCH1 120721Z 31004KT 17/13 A3006 RMK A01 T01690129  RH  077%=      5-min Rain = 0
KCH1 120722Z 31004KT 17/13 A3005 RMK A01 T01680129  RH  078%=      5-min Rain = 0
KCH1 120723Z 31004KT 17/13 A3005 RMK A01 T01680129  RH  078%=      5-min Rain = 0
KCH1 120724Z 31004KT 17/13 A3005 RMK A01 T01680130  RH  078%=      5-min Rain = 0
KCH1 120725Z 31004KT 17/13 A3006 RMK A01 T01680130  RH  078%=      5-min Rain = 0
KCH1 120726Z 31004KT 17/13 A3006 RMK A01 T01680130  RH  078%=      5-min Rain = 0
KCH1 120727Z 31004KT 17/13 A3006 RMK A01 T01680130  RH  078%=      5-min Rain = 0
KCH1 120728Z 31004KT 17/13 A3006 RMK A01 T01680131  RH  078%=      5-min Rain = 0
KCH1 120729Z 30005KT 17/13 A3005 RMK A01 T01690131  RH  078%=      5-min Rain = 0
KCH1 120730Z 31004KT 17/13 A3005 RMK A01 T01690131  RH  079%=      5-min Rain = 0
KCH1 120731Z 30004KT 17/13 A3005 RMK A01 T01680131  RH  079%=      5-min Rain = 0
KCH1 120732Z 30004KT 17/13 A3005 RMK A01 T01680131  RH  079%=      5-min Rain = 0
KCH1 120733Z 31003KT 17/13 A3005 RMK A01 T01680132  RH  079%=      5-min Rain = 0
KCH1 120734Z 31004KT 17/13 A3005 RMK A01 T01670131  RH  079%=      5-min Rain = 0
KCH1 120735Z 31004KT 17/13 A3005 RMK A01 T01670131  RH  079%=      5-min Rain = 0
KCH1 120736Z 31004KT 17/13 A3005 RMK A01 T01670132  RH  080%=      5-min Rain = 0
KCH1 120737Z 31004KT 17/13 A3005 RMK A01 T01670132  RH  080%=      5-min Rain = 0
KCH1 120738Z 30004KT 17/13 A3005 RMK A01 T01670132  RH  080%=      5-min Rain = 0
KCH1 120739Z 30004KT 17/13 A3005 RMK A01 T01670132  RH  080%=      5-min Rain = 0
KCH1 120740Z 30004KT 17/13 A3005 RMK A01 T01670131  RH  080%=      5-min Rain = 0
KCH1 120741Z 30005KT 17/13 A3005 RMK A01 T01670131  RH  079%=      5-min Rain = 0
KCH1 120742Z 30005KT 17/13 A3005 RMK A01 T01660130  RH  080%=      5-min Rain = 0
KCH1 120743Z 30005KT 17/13 A3005 RMK A01 T01650130  RH  080%=      5-min Rain = 0
KCH1 120744Z 30005KT 17/13 A3005 RMK A01 T01650131  RH  080%=      5-min Rain = 0
KCH1 120745Z 30004KT 17/13 A3005 RMK A01 T01650131  RH  080%=      5-min Rain = 0
KCH1 120746Z 30005KT 17/13 A3005 RMK A01 T01660131  RH  080%=      5-min Rain = 0
KCH1 120747Z 30005KT 17/13 A3005 RMK A01 T01660131  RH  080%=      5-min Rain = 0
KCH1 120748Z 30005KT 17/13 A3005 RMK A01 T01660130  RH  080%=      5-min Rain = 0
KCH1 120749Z 30005KT 17/13 A3005 RMK A01 T01650130  RH  080%=      5-min Rain = 0
KCH1 120750Z 30005KT 17/13 A3005 RMK A01 T01650130  RH  080%=      5-min Rain = 0
KCH1 120751Z 30005KT 17/13 A3005 RMK A01 T01650130  RH  080%=      5-min Rain = 0
KCH1 120752Z 30005KT 16/13 A3005 RMK A01 T01640129  RH  080%=      5-min Rain = 0
KCH1 120753Z 30005KT 16/13 A3005 RMK A01 T01640129  RH  080%=      5-min Rain = 0
KCH1 120754Z 30005KT 16/13 A3005 RMK A01 T01640128  RH  080%=      5-min Rain = 0
KCH1 120755Z 30004KT 16/13 A3005 RMK A01 T01630128  RH  080%=      5-min Rain = 0
KCH1 120756Z 30004KT 16/13 A3005 RMK A01 T01630128  RH  079%=      5-min Rain = 0
KCH1 120757Z 30003KT 16/13 A3005 RMK A01 T01630127  RH  079%=      5-min Rain = 0
KCH1 120758Z 31003KT 16/13 A3005 RMK A01 T01630127  RH  079%=      5-min Rain = 0
KCH1 120759Z 31003KT 16/13 A3005 RMK A01 T01620127  RH  079%=      5-min Rain = 0
KCH1 120800Z 30003KT 16/12 A3005 RMK A01 T01620123  RH  078%=      5-min Rain = 0
KCH1 120801Z 31002KT 16/12 A3005 RMK A01 T01590120  RH  078%=      5-min Rain = 0
KCH1 120802Z 31002KT 16/12 A3005 RMK A01 T01580122  RH  079%=      5-min Rain = 0
KCH1 120803Z 31003KT 16/12 A3005 RMK A01 T01570123  RH  080%=      5-min Rain = 0
KCH1 120804Z 31002KT 16/12 A3005 RMK A01 T01570123  RH  080%=      5-min Rain = 0
KCH1 120805Z 31002KT 16/12 A3005 RMK A01 T01560121  RH  080%=      5-min Rain = 0
KCH1 120806Z 31002KT 16/12 A3005 RMK A01 T01550121  RH  080%=      5-min Rain = 0
KCH1 120807Z 31002KT 15/12 A3005 RMK A01 T01530115  RH  078%=      5-min Rain = 0
KCH1 120808Z 32002KT 15/11 A3005 RMK A01 T01500113  RH  079%=      5-min Rain = 0
KCH1 120809Z 33001KT 15/12 A3005 RMK A01 T01480115  RH  081%=      5-min Rain = 0
KCH1 120810Z 33002KT 15/11 A3005 RMK A01 T01460112  RH  080%=      5-min Rain = 0
KCH1 120811Z 32002KT 14/11 A3005 RMK A01 T01430113  RH  082%=      5-min Rain = 0
KCH1 120812Z 33002KT 14/11 A3005 RMK A01 T01420111  RH  082%=      5-min Rain = 0
KCH1 120813Z 32002KT 14/11 A3005 RMK A01 T01410112  RH  083%=      5-min Rain = 0
KCH1 120814Z 31002KT 14/11 A3004 RMK A01 T01400112  RH  083%=      5-min Rain = 0
KCH1 120815Z 31002KT 14/11 A3004 RMK A01 T01400114  RH  084%=      5-min Rain = 0
KCH1 120816Z 32002KT 14/12 A3004 RMK A01 T01400117  RH  086%=      5-min Rain = 0
KCH1 120817Z 32002KT 14/12 A3004 RMK A01 T01420119  RH  086%=      5-min Rain = 0
KCH1 120818Z 31002KT 14/12 A3004 RMK A01 T01430120  RH  086%=      5-min Rain = 0
KCH1 120819Z 31002KT 14/12 A3004 RMK A01 T01430120  RH  086%=      5-min Rain = 0
KCH1 120820Z 31002KT 14/12 A3004 RMK A01 T01440120  RH  086%=      5-min Rain = 0
KCH1 120821Z 31002KT 14/12 A3004 RMK A01 T01440120  RH  085%=      5-min Rain = 0
KCH1 120822Z 31002KT 14/12 A3004 RMK A01 T01440119  RH  085%=      5-min Rain = 0
KCH1 120823Z 31002KT 14/12 A3004 RMK A01 T01440117  RH  084%=      5-min Rain = 0
KCH1 120824Z 31002KT 14/12 A3004 RMK A01 T01440116  RH  083%=      5-min Rain = 0
KCH1 120825Z 31002KT 14/12 A3004 RMK A01 T01440118  RH  084%=      5-min Rain = 0
KCH1 120826Z 31002KT 14/12 A3004 RMK A01 T01440118  RH  084%=      5-min Rain = 0
KCH1 120827Z 31002KT 14/12 A3004 RMK A01 T01440117  RH  084%=      5-min Rain = 0
KCH1 120828Z 32002KT 14/12 A3004 RMK A01 T01430116  RH  084%=      5-min Rain = 0
KCH1 120829Z 32002KT 14/12 A3004 RMK A01 T01420115  RH  083%=      5-min Rain = 0
KCH1 120830Z 32002KT 14/11 A3004 RMK A01 T01420114  RH  084%=      5-min Rain = 0
KCH1 120831Z 32002KT 14/11 A3004 RMK A01 T01410113  RH  083%=      5-min Rain = 0
KCH1 120832Z 31002KT 14/11 A3004 RMK A01 T01400112  RH  083%=      5-min Rain = 0
KCH1 120833Z 32002KT 14/11 A3004 RMK A01 T01390111  RH  083%=      5-min Rain = 0
KCH1 120834Z 31002KT 14/11 A3004 RMK A01 T01390112  RH  084%=      5-min Rain = 0
KCH1 120835Z 31001KT 14/11 A3004 RMK A01 T01390111  RH  083%=      5-min Rain = 0
KCH1 120836Z 31001KT 14/11 A3004 RMK A01 T01380109  RH  083%=      5-min Rain = 0
KCH1 120837Z 31001KT 14/11 A3004 RMK A01 T01370109  RH  083%=      5-min Rain = 0
KCH1 120838Z 31001KT 14/11 A3004 RMK A01 T01360109  RH  083%=      5-min Rain = 0
KCH1 120839Z 31001KT 14/11 A3004 RMK A01 T01350108  RH  084%=      5-min Rain = 0
KCH1 120840Z 31001KT 14/11 A3004 RMK A01 T01350108  RH  084%=      5-min Rain = 0
KCH1 120841Z 31001KT 13/11 A3004 RMK A01 T01340108  RH  084%=      5-min Rain = 0
KCH1 120842Z 31002KT 13/11 A3004 RMK A01 T01340109  RH  085%=      5-min Rain = 0
KCH1 120843Z 30002KT 13/11 A3004 RMK A01 T01340110  RH  085%=      5-min Rain = 0
KCH1 120844Z 30002KT 13/11 A3004 RMK A01 T01340110  RH  085%=      5-min Rain = 0
KCH1 120845Z 30002KT 13/11 A3004 RMK A01 T01340110  RH  085%=      5-min Rain = 0
KCH1 120846Z 30002KT 13/11 A3004 RMK A01 T01340112  RH  086%=      5-min Rain = 0
KCH1 120847Z 29002KT 14/11 A3004 RMK A01 T01350114  RH  087%=      5-min Rain = 0
KCH1 120848Z 29002KT 14/12 A3004 RMK A01 T01350115  RH  087%=      5-min Rain = 0
KCH1 120849Z 30002KT 14/12 A3004 RMK A01 T01360116  RH  088%=      5-min Rain = 0
KCH1 120850Z 30002KT 14/12 A3004 RMK A01 T01370118  RH  088%=      5-min Rain = 0
KCH1 120851Z 30002KT 14/12 A3004 RMK A01 T01380120  RH  089%=      5-min Rain = 0
KCH1 120852Z 31002KT 14/12 A3004 RMK A01 T01390121  RH  089%=      5-min Rain = 0
KCH1 120853Z 32002KT 14/12 A3004 RMK A01 T01400121  RH  089%=      5-min Rain = 0
KCH1 120854Z 33001KT 14/12 A3004 RMK A01 T01410122  RH  089%=      5-min Rain = 0
KCH1 120855Z 33002KT 14/12 A3004 RMK A01 T01420122  RH  088%=      5-min Rain = 0
KCH1 120856Z 34001KT 14/12 A3004 RMK A01 T01410116  RH  085%=      5-min Rain = 0
KCH1 120857Z 33002KT 14/11 A3004 RMK A01 T01390113  RH  084%=      5-min Rain = 0
KCH1 120858Z 33001KT 14/11 A3004 RMK A01 T01390113  RH  084%=      5-min Rain = 0
KCH1 120859Z 33001KT 14/11 A3004 RMK A01 T01370110  RH  084%=      5-min Rain = 0
KCH1 120900Z 31002KT 14/11 A3004 RMK A01 T01370113  RH  086%=      5-min Rain = 0
KCH1 120901Z 31002KT 14/11 A3003 RMK A01 T01360113  RH  086%=      5-min Rain = 0
KCH1 120902Z 31002KT 14/11 A3003 RMK A01 T01360112  RH  085%=      5-min Rain = 0
KCH1 120903Z 32001KT 14/11 A3003 RMK A01 T01350110  RH  085%=      5-min Rain = 0
KCH1 120904Z 33001KT 14/11 A3003 RMK A01 T01350112  RH  086%=      5-min Rain = 0
KCH1 120905Z 32001KT 14/11 A3003 RMK A01 T01350109  RH  085%=      5-min Rain = 0
KCH1 120906Z 31002KT 13/11 A3003 RMK A01 T01340109  RH  085%=      5-min Rain = 0
KCH1 120907Z 31001KT 13/12 A3003 RMK A01 T01340116  RH  089%=      5-min Rain = 0
KCH1 120908Z 31002KT 14/12 A3003 RMK A01 T01360120  RH  090%=      5-min Rain = 0
KCH1 120909Z 31002KT 14/12 A3003 RMK A01 T01370121  RH  090%=      5-min Rain = 0
KCH1 120910Z 31002KT 14/12 A3003 RMK A01 T01380120  RH  089%=      5-min Rain = 0
KCH1 120911Z 31002KT 14/12 A3003 RMK A01 T01380119  RH  088%=      5-min Rain = 0
KCH1 120912Z 31002KT 14/12 A3003 RMK A01 T01380120  RH  089%=      5-min Rain = 0
KCH1 120913Z 32001KT 14/12 A3003 RMK A01 T01390121  RH  089%=      5-min Rain = 0
KCH1 120914Z 32001KT 14/12 A3003 RMK A01 T01390116  RH  086%=      5-min Rain = 0
KCH1 120915Z 32001KT 14/11 A3003 RMK A01 T01370111  RH  084%=      5-min Rain = 0
KCH1 120916Z 32001KT 14/11 A3003 RMK A01 T01360112  RH  085%=      5-min Rain = 0
KCH1 120917Z 33001KT 14/11 A3003 RMK A01 T01350110  RH  085%=      5-min Rain = 0
KCH1 120918Z 34001KT 13/11 A3003 RMK A01 T01340110  RH  085%=      5-min Rain = 0
KCH1 120919Z 33002KT 13/11 A3003 RMK A01 T01330109  RH  085%=      5-min Rain = 0
KCH1 120920Z 32002KT 13/11 A3003 RMK A01 T01330109  RH  086%=      5-min Rain = 0
KCH1 120921Z 32002KT 13/11 A3003 RMK A01 T01330110  RH  086%=      5-min Rain = 0
KCH1 120922Z 33002KT 13/11 A3003 RMK A01 T01320108  RH  086%=      5-min Rain = 0
KCH1 120923Z 33002KT 13/11 A3004 RMK A01 T01320111  RH  087%=      5-min Rain = 0
KCH1 120924Z 32002KT 13/11 A3004 RMK A01 T01320111  RH  087%=      5-min Rain = 0
KCH1 120925Z 32002KT 13/11 A3004 RMK A01 T01320113  RH  088%=      5-min Rain = 0
KCH1 120926Z 32002KT 13/11 A3004 RMK A01 T01330114  RH  088%=      5-min Rain = 0
KCH1 120927Z 31002KT 13/12 A3004 RMK A01 T01340115  RH  088%=      5-min Rain = 0
KCH1 120928Z 31002KT 13/12 A3004 RMK A01 T01340115  RH  088%=      5-min Rain = 0
KCH1 120929Z 31002KT 14/12 A3003 RMK A01 T01350116  RH  088%=      5-min Rain = 0
KCH1 120930Z 32002KT 14/12 A3003 RMK A01 T01350116  RH  088%=      5-min Rain = 0
KCH1 120931Z 32002KT 14/11 A3003 RMK A01 T01350114  RH  087%=      5-min Rain = 0
KCH1 120932Z 33002KT 14/11 A3003 RMK A01 T01360114  RH  087%=      5-min Rain = 0
KCH1 120933Z 33002KT 14/11 A3003 RMK A01 T01350114  RH  087%=      5-min Rain = 0
KCH1 120934Z 34002KT 14/11 A3003 RMK A01 T01350112  RH  086%=      5-min Rain = 0
KCH1 120935Z 33002KT 13/11 A3003 RMK A01 T01330107  RH  084%=      5-min Rain = 0
KCH1 120936Z 32002KT 13/11 A3003 RMK A01 T01320111  RH  087%=      5-min Rain = 0
KCH1 120937Z 33003KT 13/11 A3003 RMK A01 T01320110  RH  086%=      5-min Rain = 0
KCH1 120938Z 32003KT 13/11 A3003 RMK A01 T01320108  RH  086%=      5-min Rain = 0
KCH1 120939Z 32003KT 13/11 A3003 RMK A01 T01320111  RH  087%=      5-min Rain = 0
KCH1 120940Z 31003KT 13/11 A3003 RMK A01 T01320113  RH  088%=      5-min Rain = 0
KCH1 120941Z 32003KT 13/11 A3003 RMK A01 T01330113  RH  087%=      5-min Rain = 0
KCH1 120942Z 32003KT 13/11 A3003 RMK A01 T01330113  RH  088%=      5-min Rain = 0
KCH1 120943Z 32002KT 13/11 A3003 RMK A01 T01330114  RH  089%=      5-min Rain = 0
KCH1 120944Z 32002KT 13/12 A3003 RMK A01 T01340117  RH  090%=      5-min Rain = 0
KCH1 120945Z 32002KT 14/12 A3003 RMK A01 T01350120  RH  090%=      5-min Rain = 0
KCH1 120946Z 32002KT 14/12 A3003 RMK A01 T01360120  RH  090%=      5-min Rain = 0
KCH1 120947Z 31003KT 14/12 A3003 RMK A01 T01360120  RH  090%=      5-min Rain = 0
KCH1 120948Z 31002KT 14/12 A3003 RMK A01 T01370121  RH  090%=      5-min Rain = 0
KCH1 120949Z 31002KT 14/12 A3003 RMK A01 T01370121  RH  090%=      5-min Rain = 0
KCH1 120950Z 31002KT 14/12 A3003 RMK A01 T01380122  RH  090%=      5-min Rain = 0
KCH1 120951Z 31002KT 14/12 A3003 RMK A01 T01390122  RH  090%=      5-min Rain = 0
KCH1 120952Z 31002KT 14/12 A3003 RMK A01 T01390122  RH  089%=      5-min Rain = 0
KCH1 120953Z 30002KT 14/12 A3003 RMK A01 T01390121  RH  089%=      5-min Rain = 0
KCH1 120954Z 30003KT 14/12 A3003 RMK A01 T01400122  RH  089%=      5-min Rain = 0
KCH1 120955Z 30003KT 14/12 A3003 RMK A01 T01410122  RH  089%=      5-min Rain = 0
KCH1 120956Z 30003KT 14/12 A3003 RMK A01 T01410123  RH  088%=      5-min Rain = 0
KCH1 120957Z 30003KT 14/12 A3003 RMK A01 T01420123  RH  088%=      5-min Rain = 0
KCH1 120958Z 31002KT 14/12 A3003 RMK A01 T01420122  RH  087%=      5-min Rain = 0
KCH1 120959Z 31002KT 14/12 A3003 RMK A01 T01420121  RH  087%=      5-min Rain = 0
KCH1 121000Z 31002KT 14/12 A3003 RMK A01 T01410120  RH  087%=      5-min Rain = 0
KCH1 121001Z 30002KT 14/12 A3003 RMK A01 T01410121  RH  088%=      5-min Rain = 0
KCH1 121002Z 30002KT 14/12 A3003 RMK A01 T01410123  RH  089%=      5-min Rain = 0
KCH1 121003Z 30002KT 14/12 A3003 RMK A01 T01410122  RH  088%=      5-min Rain = 0
KCH1 121004Z 31001KT 14/12 A3003 RMK A01 T01410117  RH  085%=      5-min Rain = 0
KCH1 121005Z 31001KT 14/11 A3003 RMK A01 T01380112  RH  084%=      5-min Rain = 0
KCH1 121006Z 30002KT 14/12 A3003 RMK A01 T01360117  RH  088%=      5-min Rain = 0
KCH1 121007Z 31002KT 14/12 A3003 RMK A01 T01370119  RH  089%=      5-min Rain = 0
KCH1 121008Z 30002KT 14/12 A3003 RMK A01 T01370119  RH  089%=      5-min Rain = 0
KCH1 121009Z 31002KT 14/12 A3003 RMK A01 T01370118  RH  088%=      5-min Rain = 0
KCH1 121010Z 31003KT 14/12 A3003 RMK A01 T01370118  RH  088%=      5-min Rain = 0
KCH1 121011Z 31002KT 14/12 A3003 RMK A01 T01370118  RH  089%=      5-min Rain = 0
KCH1 121012Z 31002KT 14/12 A3003 RMK A01 T01370119  RH  089%=      5-min Rain = 0
KCH1 121013Z 30003KT 14/12 A3003 RMK A01 T01370119  RH  089%=      5-min Rain = 0
KCH1 121014Z 31003KT 14/12 A3003 RMK A01 T01370119  RH  089%=      5-min Rain = 0
KCH1 121015Z 31003KT 14/12 A3003 RMK A01 T01370119  RH  089%=      5-min Rain = 0
KCH1 121016Z 31003KT 14/12 A3003 RMK A01 T01360118  RH  089%=      5-min Rain = 0
KCH1 121017Z 31002KT 14/12 A3003 RMK A01 T01360118  RH  089%=      5-min Rain = 0
KCH1 121018Z 31003KT 14/12 A3003 RMK A01 T01360119  RH  089%=      5-min Rain = 0
KCH1 121019Z 32003KT 14/12 A3003 RMK A01 T01370120  RH  090%=      5-min Rain = 0
KCH1 121020Z 32003KT 14/12 A3003 RMK A01 T01370119  RH  089%=      5-min Rain = 0
KCH1 121021Z 32002KT 14/11 A3003 RMK A01 T01360114  RH  087%=      5-min Rain = 0
KCH1 121022Z 31003KT 13/12 A3003 RMK A01 T01340115  RH  088%=      5-min Rain = 0
KCH1 121023Z 32003KT 13/12 A3003 RMK A01 T01340118  RH  090%=      5-min Rain = 0
KCH1 121024Z 32003KT 14/12 A3003 RMK A01 T01350118  RH  090%=      5-min Rain = 0
KCH1 121025Z 31004KT 14/12 A3003 RMK A01 T01350118  RH  089%=      5-min Rain = 0
KCH1 121026Z 31004KT 14/12 A3003 RMK A01 T01350118  RH  090%=      5-min Rain = 0
KCH1 121027Z 31004KT 14/12 A3003 RMK A01 T01350119  RH  090%=      5-min Rain = 0
KCH1 121028Z 31004KT 14/12 A3003 RMK A01 T01360120  RH  090%=      5-min Rain = 0
KCH1 121029Z 31004KT 14/12 A3003 RMK A01 T01370121  RH  090%=      5-min Rain = 0
KCH1 121030Z 31003KT 14/12 A3003 RMK A01 T01380123  RH  091%=      5-min Rain = 0
KCH1 121031Z 32003KT 14/12 A3003 RMK A01 T01390124  RH  090%=      5-min Rain = 0
KCH1 121032Z 31003KT 14/12 A3003 RMK A01 T01390124  RH  090%=      5-min Rain = 0
KCH1 121033Z 31003KT 14/12 A3003 RMK A01 T01400124  RH  090%=      5-min Rain = 0
KCH1 121034Z 31003KT 14/12 A3003 RMK A01 T01400123  RH  090%=      5-min Rain = 0
KCH1 121035Z 30003KT 14/12 A3003 RMK A01 T01400123  RH  090%=      5-min Rain = 0
KCH1 121036Z 30003KT 14/12 A3003 RMK A01 T01400123  RH  090%=      5-min Rain = 0
KCH1 121037Z 31003KT 14/12 A3003 RMK A01 T01400124  RH  090%=      5-min Rain = 0
KCH1 121038Z 31003KT 14/12 A3003 RMK A01 T01410124  RH  090%=      5-min Rain = 0
KCH1 121039Z 31002KT 14/12 A3003 RMK A01 T01410123  RH  089%=      5-min Rain = 0
KCH1 121040Z 31003KT 14/12 A3003 RMK A01 T01410123  RH  089%=      5-min Rain = 0
KCH1 121041Z 31003KT 14/12 A3003 RMK A01 T01410123  RH  089%=      5-min Rain = 0
KCH1 121042Z 31003KT 14/12 A3003 RMK A01 T01400122  RH  089%=      5-min Rain = 0
KCH1 121043Z 31003KT 14/12 A3003 RMK A01 T01400122  RH  089%=      5-min Rain = 0
KCH1 121044Z 31003KT 14/12 A3003 RMK A01 T01400122  RH  089%=      5-min Rain = 0
KCH1 121045Z 31002KT 14/12 A3003 RMK A01 T01400122  RH  089%=      5-min Rain = 0
KCH1 121046Z 33002KT 14/12 A3003 RMK A01 T01390120  RH  088%=      5-min Rain = 0
KCH1 121047Z 32002KT 14/12 A3003 RMK A01 T01380118  RH  088%=      5-min Rain = 0
KCH1 121048Z 32002KT 14/12 A3003 RMK A01 T01360115  RH  087%=      5-min Rain = 0
KCH1 121049Z 33002KT 13/11 A3003 RMK A01 T01330106  RH  084%=      5-min Rain = 0
KCH1 121050Z 32002KT 13/11 A3003 RMK A01 T01300105  RH  085%=      5-min Rain = 0
KCH1 121051Z 33002KT 13/11 A3003 RMK A01 T01290109  RH  088%=      5-min Rain = 0
KCH1 121052Z 32002KT 13/11 A3003 RMK A01 T01290111  RH  089%=      5-min Rain = 0
KCH1 121053Z 32002KT 13/11 A3003 RMK A01 T01290111  RH  089%=      5-min Rain = 0
KCH1 121054Z 33002KT 13/11 A3003 RMK A01 T01290112  RH  090%=      5-min Rain = 0
KCH1 121055Z 33002KT 13/11 A3003 RMK A01 T01290112  RH  089%=      5-min Rain = 0
KCH1 121056Z 32002KT 13/11 A3003 RMK A01 T01290111  RH  089%=      5-min Rain = 0
KCH1 121057Z 32002KT 13/11 A3003 RMK A01 T01280111  RH  089%=      5-min Rain = 0
KCH1 121058Z 31003KT 13/11 A3004 RMK A01 T01280111  RH  089%=      5-min Rain = 0
KCH1 121059Z 31003KT 13/11 A3004 RMK A01 T01280111  RH  090%=      5-min Rain = 0
KCH1 121100Z 31003KT 13/11 A3004 RMK A01 T01290112  RH  090%=      5-min Rain = 0
KCH1 121101Z 31003KT 13/11 A3004 RMK A01 T01290112  RH  090%=      5-min Rain = 0
KCH1 121102Z 31003KT 13/11 A3004 RMK A01 T01290112  RH  090%=      5-min Rain = 0
KCH1 121103Z 31003KT 13/11 A3004 RMK A01 T01290113  RH  090%=      5-min Rain = 0
KCH1 121104Z 31003KT 13/11 A3004 RMK A01 T01300114  RH  090%=      5-min Rain = 0
KCH1 121105Z 31003KT 13/12 A3004 RMK A01 T01300115  RH  090%=      5-min Rain = 0
KCH1 121106Z 31003KT 13/12 A3004 RMK A01 T01310115  RH  090%=      5-min Rain = 0
KCH1 121107Z 31003KT 13/12 A3004 RMK A01 T01310116  RH  090%=      5-min Rain = 0
KCH1 121108Z 31003KT 13/12 A3004 RMK A01 T01310116  RH  090%=      5-min Rain = 0
KCH1 121109Z 31003KT 13/12 A3004 RMK A01 T01310116  RH  090%=      5-min Rain = 0
KCH1 121110Z 31003KT 13/12 A3004 RMK A01 T01310115  RH  090%=      5-min Rain = 0
KCH1 121111Z 31002KT 13/12 A3004 RMK A01 T01320116  RH  090%=      5-min Rain = 0
KCH1 121112Z 31003KT 13/12 A3004 RMK A01 T01320116  RH  090%=      5-min Rain = 0
KCH1 121113Z 31003KT 13/12 A3004 RMK A01 T01320116  RH  090%=      5-min Rain = 0
KCH1 121114Z 31002KT 13/12 A3004 RMK A01 T01320116  RH  090%=      5-min Rain = 0
KCH1 121115Z 31002KT 13/12 A3004 RMK A01 T01320117  RH  090%=      5-min Rain = 0
KCH1 121116Z 31003KT 13/12 A3004 RMK A01 T01330118  RH  091%=      5-min Rain = 0
KCH1 121117Z 31003KT 13/12 A3004 RMK A01 T01340119  RH  091%=      5-min Rain = 0
KCH1 121118Z 31003KT 14/12 A3004 RMK A01 T01350120  RH  091%=      5-min Rain = 0
KCH1 121119Z 31003KT 14/12 A3004 RMK A01 T01350120  RH  091%=      5-min Rain = 0
KCH1 121120Z 31003KT 14/12 A3004 RMK A01 T01350120  RH  090%=      5-min Rain = 0
KCH1 121121Z 31003KT 14/12 A3004 RMK A01 T01350119  RH  090%=      5-min Rain = 0
KCH1 121122Z 32002KT 14/12 A3004 RMK A01 T01350119  RH  090%=      5-min Rain = 0
KCH1 121123Z 32002KT 13/12 A3004 RMK A01 T01340115  RH  088%=      5-min Rain = 0
KCH1 121124Z 33002KT 13/11 A3004 RMK A01 T01330114  RH  088%=      5-min Rain = 0
KCH1 121125Z 32002KT 13/11 A3004 RMK A01 T01310111  RH  087%=      5-min Rain = 0
KCH1 121126Z 32002KT 13/11 A3004 RMK A01 T01290108  RH  087%=      5-min Rain = 0
KCH1 121127Z 33002KT 13/11 A3004 RMK A01 T01270105  RH  086%=      5-min Rain = 0
KCH1 121128Z 33002KT 13/10 A3004 RMK A01 T01250104  RH  087%=      5-min Rain = 0
KCH1 121129Z 33002KT 13/11 A3004 RMK A01 T01250107  RH  089%=      5-min Rain = 0
KCH1 121130Z 33002KT 12/11 A3004 RMK A01 T01240108  RH  090%=      5-min Rain = 0
KCH1 121131Z 33002KT 13/11 A3004 RMK A01 T01250110  RH  091%=      5-min Rain = 0
KCH1 121132Z 33002KT 13/11 A3004 RMK A01 T01250109  RH  090%=      5-min Rain = 0
KCH1 121133Z 33002KT 13/11 A3004 RMK A01 T01260109  RH  090%=      5-min Rain = 0
KCH1 121134Z 32002KT 13/11 A3004 RMK A01 T01250110  RH  090%=      5-min Rain = 0
KCH1 121135Z 32002KT 13/11 A3004 RMK A01 T01260111  RH  091%=      5-min Rain = 0
KCH1 121136Z 32002KT 13/11 A3004 RMK A01 T01270112  RH  091%=      5-min Rain = 0
KCH1 121137Z 32002KT 13/11 A3004 RMK A01 T01270112  RH  091%=      5-min Rain = 0
KCH1 121138Z 32002KT 13/11 A3004 RMK A01 T01270111  RH  090%=      5-min Rain = 0
KCH1 121139Z 32002KT 13/11 A3004 RMK A01 T01270111  RH  090%=      5-min Rain = 0
KCH1 121140Z 32002KT 13/11 A3004 RMK A01 T01270111  RH  090%=      5-min Rain = 0
KCH1 121141Z 32002KT 13/11 A3004 RMK A01 T01270111  RH  090%=      5-min Rain = 0
KCH1 121142Z 32002KT 13/11 A3004 RMK A01 T01270111  RH  090%=      5-min Rain = 0
KCH1 121143Z 31002KT 13/11 A3004 RMK A01 T01270111  RH  090%=      5-min Rain = 0
KCH1 121144Z 31002KT 13/11 A3004 RMK A01 T01270111  RH  090%=      5-min Rain = 0
KCH1 121145Z 30002KT 13/11 A3005 RMK A01 T01270110  RH  089%=      5-min Rain = 0
KCH1 121146Z 30003KT 13/11 A3005 RMK A01 T01260107  RH  088%=      5-min Rain = 0
KCH1 121147Z 30003KT 13/11 A3005 RMK A01 T01260107  RH  089%=      5-min Rain = 0
KCH1 121148Z 30003KT 13/11 A3005 RMK A01 T01250108  RH  089%=      5-min Rain = 0
KCH1 121149Z 30003KT 13/11 A3005 RMK A01 T01260110  RH  090%=      5-min Rain = 0
KCH1 121150Z 31002KT 13/11 A3005 RMK A01 T01260111  RH  091%=      5-min Rain = 0
KCH1 121151Z 30003KT 13/11 A3005 RMK A01 T01260112  RH  091%=      5-min Rain = 0
KCH1 121152Z 30003KT 13/11 A3005 RMK A01 T01260112  RH  091%=      5-min Rain = 0
KCH1 121153Z 30003KT 13/11 A3005 RMK A01 T01260113  RH  091%=      5-min Rain = 0
KCH1 121154Z 30003KT 13/11 A3005 RMK A01 T01270113  RH  091%=      5-min Rain = 0
KCH1 121155Z 31003KT 13/11 A3005 RMK A01 T01270113  RH  091%=      5-min Rain = 0
KCH1 121156Z 31004KT 13/11 A3005 RMK A01 T01270112  RH  091%=      5-min Rain = 0
KCH1 121157Z 31003KT 13/11 A3005 RMK A01 T01270113  RH  091%=      5-min Rain = 0
KCH1 121158Z 31003KT 13/11 A3005 RMK A01 T01280114  RH  091%=      5-min Rain = 0
KCH1 121159Z 30003KT 13/11 A3005 RMK A01 T01280114  RH  091%=      5-min Rain = 0
KCH1 121200Z 31003KT 13/11 A3005 RMK A01 T01280113  RH  091%=      5-min Rain = 0
KCH1 121201Z 31002KT 13/11 A3005 RMK A01 T01280114  RH  091%=      5-min Rain = 0
KCH1 121202Z 31002KT 13/12 A3005 RMK A01 T01290115  RH  091%=      5-min Rain = 0
KCH1 121203Z 31003KT 13/12 A3005 RMK A01 T01290116  RH  092%=      5-min Rain = 0
KCH1 121204Z 30004KT 13/12 A3005 RMK A01 T01300117  RH  092%=      5-min Rain = 0
KCH1 121205Z 31004KT 13/12 A3005 RMK A01 T01310118  RH  092%=      5-min Rain = 0
KCH1 121206Z 31004KT 13/12 A3005 RMK A01 T01320118  RH  091%=      5-min Rain = 0
KCH1 121207Z 30004KT 13/12 A3005 RMK A01 T01320118  RH  091%=      5-min Rain = 0
KCH1 121208Z 31004KT 13/12 A3005 RMK A01 T01330119  RH  091%=      5-min Rain = 0
KCH1 121209Z 31004KT 13/12 A3005 RMK A01 T01330119  RH  091%=      5-min Rain = 0
KCH1 121210Z 30004KT 13/12 A3005 RMK A01 T01340120  RH  091%=      5-min Rain = 0
KCH1 121211Z 30004KT 14/12 A3005 RMK A01 T01350119  RH  090%=      5-min Rain = 0
KCH1 121212Z 31004KT 14/12 A3005 RMK A01 T01350120  RH  090%=      5-min Rain = 0
KCH1 121213Z 30004KT 14/12 A3005 RMK A01 T01360119  RH  090%=      5-min Rain = 0
KCH1 121214Z 30004KT 14/12 A3005 RMK A01 T01360119  RH  089%=      5-min Rain = 0
KCH1 121215Z 31004KT 14/12 A3005 RMK A01 T01360119  RH  089%=      5-min Rain = 0
KCH1 121216Z 31004KT 14/12 A3005 RMK A01 T01360119  RH  089%=      5-min Rain = 0
KCH1 121217Z 31003KT 14/12 A3005 RMK A01 T01360119  RH  089%=      5-min Rain = 0
KCH1 121218Z 31003KT 14/12 A3005 RMK A01 T01360119  RH  089%=      5-min Rain = 0
KCH1 121219Z 31003KT 14/12 A3005 RMK A01 T01360119  RH  089%=      5-min Rain = 0
KCH1 121220Z 31003KT 14/12 A3005 RMK A01 T01360119  RH  089%=      5-min Rain = 0
KCH1 121221Z 31003KT 14/12 A3005 RMK A01 T01360116  RH  088%=      5-min Rain = 0
KCH1 121222Z 31003KT 13/11 A3005 RMK A01 T01340111  RH  086%=      5-min Rain = 0
KCH1 121223Z 31002KT 13/11 A3005 RMK A01 T01330112  RH  087%=      5-min Rain = 0
KCH1 121224Z 31002KT 13/11 A3005 RMK A01 T01320113  RH  088%=      5-min Rain = 0
KCH1 121225Z 31003KT 13/11 A3005 RMK A01 T01320114  RH  089%=      5-min Rain = 0
KCH1 121226Z 31003KT 13/12 A3005 RMK A01 T01320115  RH  089%=      5-min Rain = 0
KCH1 121227Z 31003KT 13/12 A3005 RMK A01 T01320115  RH  090%=      5-min Rain = 0
KCH1 121228Z 31003KT 13/11 A3005 RMK A01 T01320114  RH  089%=      5-min Rain = 0
KCH1 121229Z 31003KT 13/11 A3005 RMK A01 T01310113  RH  089%=      5-min Rain = 0
KCH1 121230Z 31003KT 13/11 A3005 RMK A01 T01310114  RH  089%=      5-min Rain = 0
KCH1 121231Z 31003KT 13/12 A3005 RMK A01 T01310115  RH  090%=      5-min Rain = 0
KCH1 121232Z 31003KT 13/12 A3005 RMK A01 T01310115  RH  090%=      5-min Rain = 0
KCH1 121233Z 31003KT 13/12 A3005 RMK A01 T01310117  RH  091%=      5-min Rain = 0
KCH1 121234Z 31003KT 13/12 A3005 RMK A01 T01320117  RH  091%=      5-min Rain = 0
KCH1 121235Z 31002KT 13/12 A3005 RMK A01 T01320117  RH  091%=      5-min Rain = 0
KCH1 121236Z 32002KT 13/12 A3005 RMK A01 T01320117  RH  091%=      5-min Rain = 0
KCH1 121237Z 32002KT 13/12 A3005 RMK A01 T01320117  RH  091%=      5-min Rain = 0
KCH1 121238Z 31002KT 13/12 A3005 RMK A01 T01320117  RH  091%=      5-min Rain = 0
KCH1 121239Z 31002KT 13/12 A3005 RMK A01 T01320118  RH  091%=      5-min Rain = 0
KCH1 121240Z 31002KT 13/12 A3005 RMK A01 T01330118  RH  091%=      5-min Rain = 0
KCH1 121241Z 31003KT 13/12 A3005 RMK A01 T01330118  RH  091%=      5-min Rain = 0
KCH1 121242Z 31003KT 13/12 A3005 RMK A01 T01340119  RH  091%=      5-min Rain = 0
KCH1 121243Z 31003KT 13/12 A3005 RMK A01 T01340118  RH  090%=      5-min Rain = 0
KCH1 121244Z 31003KT 13/12 A3005 RMK A01 T01340118  RH  090%=      5-min Rain = 0
KCH1 121245Z 31003KT 13/12 A3005 RMK A01 T01340118  RH  090%=      5-min Rain = 0
KCH1 121246Z 32003KT 14/12 A3005 RMK A01 T01350119  RH  090%=      5-min Rain = 0
KCH1 121247Z 32002KT 14/12 A3005 RMK A01 T01350118  RH  090%=      5-min Rain = 0
KCH1 121248Z 32002KT 14/12 A3005 RMK A01 T01350118  RH  090%=      5-min Rain = 0
KCH1 121249Z 31003KT 13/12 A3005 RMK A01 T01340117  RH  089%=      5-min Rain = 0
KCH1 121250Z 31003KT 14/12 A3005 RMK A01 T01350117  RH  089%=      5-min Rain = 0
KCH1 121251Z 30002KT 14/12 A3005 RMK A01 T01350117  RH  089%=      5-min Rain = 0
KCH1 121252Z 30003KT 14/12 A3005 RMK A01 T01350117  RH  089%=      5-min Rain = 0
KCH1 121253Z 30003KT 14/12 A3005 RMK A01 T01360118  RH  089%=      5-min Rain = 0
KCH1 121254Z 30004KT 14/12 A3005 RMK A01 T01370118  RH  089%=      5-min Rain = 0
KCH1 121255Z 30003KT 14/12 A3005 RMK A01 T01370118  RH  088%=      5-min Rain = 0
KCH1 121256Z 30004KT 14/12 A3005 RMK A01 T01380119  RH  088%=      5-min Rain = 0
KCH1 121257Z 29004KT 14/12 A3005 RMK A01 T01380118  RH  088%=      5-min Rain = 0
KCH1 121258Z 30004KT 14/12 A3005 RMK A01 T01380118  RH  088%=      5-min Rain = 0
KCH1 121259Z 29004KT 14/12 A3005 RMK A01 T01390119  RH  088%=      5-min Rain = 0
KCH1 121300Z 29003KT 14/12 A3005 RMK A01 T01400119  RH  088%=      5-min Rain = 0
KCH1 121301Z 29003KT 14/12 A3005 RMK A01 T01400120  RH  088%=      5-min Rain = 0
KCH1 121302Z 29003KT 14/12 A3005 RMK A01 T01400120  RH  088%=      5-min Rain = 0
KCH1 121303Z 29003KT 14/12 A3005 RMK A01 T01410121  RH  088%=      5-min Rain = 0
KCH1 121304Z 30002KT 14/12 A3005 RMK A01 T01410121  RH  087%=      5-min Rain = 0
KCH1 121305Z 29002KT 14/12 A3005 RMK A01 T01420122  RH  088%=      5-min Rain = 0
KCH1 121306Z 30002KT 14/12 A3005 RMK A01 T01420122  RH  088%=      5-min Rain = 0
KCH1 121307Z 29003KT 14/12 A3005 RMK A01 T01430122  RH  087%=      5-min Rain = 0
KCH1 121308Z 30003KT 14/12 A3005 RMK A01 T01440123  RH  087%=      5-min Rain = 0
KCH1 121309Z 29002KT 14/12 A3005 RMK A01 T01440123  RH  087%=      5-min Rain = 0
KCH1 121310Z 30003KT 15/12 A3005 RMK A01 T01450123  RH  087%=      5-min Rain = 0
KCH1 121311Z 30003KT 15/12 A3005 RMK A01 T01450123  RH  087%=      5-min Rain = 0
KCH1 121312Z 30003KT 15/12 A3005 RMK A01 T01450123  RH  086%=      5-min Rain = 0
KCH1 121313Z 30002KT 15/12 A3005 RMK A01 T01460123  RH  086%=      5-min Rain = 0
KCH1 121314Z 30002KT 15/12 A3005 RMK A01 T01470123  RH  086%=      5-min Rain = 0
KCH1 121315Z 31002KT 15/12 A3005 RMK A01 T01470124  RH  086%=      5-min Rain = 0
KCH1 121316Z 31001KT 15/12 A3005 RMK A01 T01480124  RH  085%=      5-min Rain = 0
KCH1 121317Z 31002KT 15/12 A3005 RMK A01 T01480124  RH  085%=      5-min Rain = 0
KCH1 121318Z 31001KT 15/12 A3005 RMK A01 T01490123  RH  085%=      5-min Rain = 0
KCH1 121319Z 31001KT 15/12 A3005 RMK A01 T01490124  RH  085%=      5-min Rain = 0
KCH1 121320Z 32001KT 15/13 A3005 RMK A01 T01500125  RH  085%=      5-min Rain = 0
KCH1 121321Z 29001KT 15/13 A3005 RMK A01 T01510126  RH  085%=      5-min Rain = 0
KCH1 121322Z 30001KT 15/13 A3005 RMK A01 T01520126  RH  084%=      5-min Rain = 0
KCH1 121323Z 31001KT 15/13 A3005 RMK A01 T01530127  RH  084%=      5-min Rain = 0
KCH1 121324Z 29002KT 15/13 A3005 RMK A01 T01530125  RH  083%=      5-min Rain = 0
KCH1 121325Z 29002KT 15/12 A3005 RMK A01 T01540123  RH  082%=      5-min Rain = 0
KCH1 121326Z 29002KT 15/12 A3005 RMK A01 T01540124  RH  082%=      5-min Rain = 0
KCH1 121327Z 29002KT 16/12 A3005 RMK A01 T01550124  RH  082%=      5-min Rain = 0
KCH1 121328Z 29003KT 16/12 A3005 RMK A01 T01560124  RH  082%=      5-min Rain = 0
KCH1 121329Z 29003KT 16/12 A3005 RMK A01 T01560124  RH  081%=      5-min Rain = 0
KCH1 121330Z 30003KT 16/12 A3005 RMK A01 T01570124  RH  081%=      5-min Rain = 0
KCH1 121331Z 29004KT 16/12 A3005 RMK A01 T01570124  RH  080%=      5-min Rain = 0
KCH1 121332Z 29004KT 16/12 A3005 RMK A01 T01580122  RH  079%=      5-min Rain = 0
KCH1 121333Z 29004KT 16/12 A3005 RMK A01 T01580122  RH  079%=      5-min Rain = 0
KCH1 121334Z 29004KT 16/12 A3005 RMK A01 T01580121  RH  079%=      5-min Rain = 0
KCH1 121335Z 29004KT 16/12 A3005 RMK A01 T01580121  RH  078%=      5-min Rain = 0
KCH1 121336Z 29004KT 16/12 A3005 RMK A01 T01590121  RH  078%=      5-min Rain = 0
KCH1 121337Z 29003KT 16/12 A3005 RMK A01 T01590121  RH  078%=      5-min Rain = 0
KCH1 121338Z 29004KT 16/12 A3005 RMK A01 T01600121  RH  078%=      5-min Rain = 0
KCH1 121339Z 29004KT 16/12 A3005 RMK A01 T01610119  RH  076%=      5-min Rain = 0
KCH1 121340Z 29005KT 16/12 A3005 RMK A01 T01610120  RH  077%=      5-min Rain = 0
KCH1 121341Z 29004KT 16/12 A3005 RMK A01 T01620119  RH  076%=      5-min Rain = 0
KCH1 121342Z 29005KT 16/12 A3005 RMK A01 T01630120  RH  076%=      5-min Rain = 0
KCH1 121343Z 29004KT 16/12 A3005 RMK A01 T01630120  RH  076%=      5-min Rain = 0
KCH1 121344Z 30004KT 16/12 A3005 RMK A01 T01630120  RH  076%=      5-min Rain = 0
KCH1 121345Z 30005KT 16/12 A3005 RMK A01 T01630121  RH  076%=      5-min Rain = 0
KCH1 121346Z 30003KT 16/12 A3005 RMK A01 T01630121  RH  076%=      5-min Rain = 0
KCH1 121347Z 30003KT 16/12 A3005 RMK A01 T01640123  RH  077%=      5-min Rain = 0
KCH1 121348Z 30003KT 17/12 A3005 RMK A01 T01650124  RH  077%=      5-min Rain = 0
KCH1 121349Z 29003KT 17/12 A3005 RMK A01 T01660124  RH  076%=      5-min Rain = 0
KCH1 121350Z 30003KT 17/12 A3005 RMK A01 T01670124  RH  076%=      5-min Rain = 0
KCH1 121351Z 30004KT 17/13 A3005 RMK A01 T01680125  RH  075%=      5-min Rain = 0
KCH1 121352Z 30004KT 17/12 A3005 RMK A01 T01680124  RH  075%=      5-min Rain = 0
KCH1 121353Z 31004KT 17/13 A3005 RMK A01 T01690125  RH  075%=      5-min Rain = 0
KCH1 121354Z 31003KT 17/13 A3005 RMK A01 T01690126  RH  076%=      5-min Rain = 0
KCH1 121355Z 29002KT 17/13 A3005 RMK A01 T01700126  RH  075%=      5-min Rain = 0
KCH1 121356Z 30002KT 17/13 A3005 RMK A01 T01710126  RH  075%=      5-min Rain = 0
KCH1 121357Z 30003KT 17/13 A3005 RMK A01 T01720126  RH  074%=      5-min Rain = 0
KCH1 121358Z 30003KT 17/13 A3005 RMK A01 T01730126  RH  074%=      5-min Rain = 0
KCH1 121359Z 31003KT 17/13 A3005 RMK A01 T01730126  RH  074%=      5-min Rain = 0
KCH1 121400Z 31003KT 17/13 A3005 RMK A01 T01730126  RH  074%=      5-min Rain = 0
KCH1 121401Z 30003KT 17/13 A3005 RMK A01 T01740125  RH  073%=      5-min Rain = 0
KCH1 121402Z 30002KT 17/13 A3005 RMK A01 T01740125  RH  073%=      5-min Rain = 0
KCH1 121403Z 30002KT 17/13 A3005 RMK A01 T01740126  RH  073%=      5-min Rain = 0
KCH1 121404Z 31002KT 18/13 A3005 RMK A01 T01750129  RH  074%=      5-min Rain = 0
KCH1 121405Z 30003KT 18/13 A3005 RMK A01 T01760127  RH  073%=      5-min Rain = 0
KCH1 121406Z 31001KT 18/13 A3005 RMK A01 T01770127  RH  073%=      5-min Rain = 0
KCH1 121407Z 30002KT 18/13 A3005 RMK A01 T01780129  RH  073%=      5-min Rain = 0
KCH1 121408Z 32002KT 18/13 A3005 RMK A01 T01780128  RH  072%=      5-min Rain = 0
KCH1 121409Z 30003KT 18/13 A3005 RMK A01 T01800130  RH  073%=      5-min Rain = 0
KCH1 121410Z 30003KT 18/13 A3005 RMK A01 T01810130  RH  072%=      5-min Rain = 0
KCH1 121411Z 31003KT 18/13 A3005 RMK A01 T01820129  RH  071%=      5-min Rain = 0
KCH1 121412Z 30002KT 18/13 A3005 RMK A01 T01830130  RH  071%=      5-min Rain = 0
KCH1 121413Z 31003KT 18/13 A3005 RMK A01 T01840130  RH  071%=      5-min Rain = 0
KCH1 121414Z 31004KT 19/13 A3005 RMK A01 T01850128  RH  070%=      5-min Rain = 0
KCH1 121415Z 31003KT 19/13 A3005 RMK A01 T01850128  RH  069%=      5-min Rain = 0
KCH1 121416Z 30003KT 19/13 A3005 RMK A01 T01850131  RH  071%=      5-min Rain = 0
KCH1 121417Z 31002KT 19/13 A3005 RMK A01 T01860130  RH  070%=      5-min Rain = 0
KCH1 121418Z 31002KT 19/13 A3005 RMK A01 T01870131  RH  070%=      5-min Rain = 0
KCH1 121419Z 29003KT 19/13 A3005 RMK A01 T01880130  RH  069%=      5-min Rain = 0
KCH1 121420Z 29003KT 19/13 A3005 RMK A01 T01880130  RH  069%=      5-min Rain = 0
KCH1 121421Z 29003KT 19/13 A3005 RMK A01 T01890131  RH  069%=      5-min Rain = 0
KCH1 121422Z 30003KT 19/13 A3005 RMK A01 T01900131  RH  069%=      5-min Rain = 0
KCH1 121423Z 30003KT 19/13 A3005 RMK A01 T01900133  RH  070%=      5-min Rain = 0
KCH1 121424Z 30002KT 19/13 A3005 RMK A01 T01900132  RH  069%=      5-min Rain = 0
KCH1 121425Z 32002KT 19/13 A3005 RMK A01 T01910130  RH  067%=      5-min Rain = 0
KCH1 121426Z 30003KT 19/13 A3005 RMK A01 T01920127  RH  066%=      5-min Rain = 0
KCH1 121427Z 29003KT 19/13 A3005 RMK A01 T01930128  RH  066%=      5-min Rain = 0
KCH1 121428Z 30003KT 19/13 A3005 RMK A01 T01940128  RH  066%=      5-min Rain = 0
KCH1 121429Z 30003KT 20/13 A3005 RMK A01 T01950130  RH  066%=      5-min Rain = 0
KCH1 121430Z 30003KT 20/13 A3005 RMK A01 T01950128  RH  065%=      5-min Rain = 0
KCH1 121431Z 30003KT 20/12 A3005 RMK A01 T01970122  RH  062%=      5-min Rain = 0
KCH1 121432Z 30003KT 20/12 A3005 RMK A01 T01980121  RH  061%=      5-min Rain = 0
KCH1 121433Z 30003KT 20/12 A3005 RMK A01 T01990119  RH  060%=      5-min Rain = 0
KCH1 121434Z 29003KT 20/12 A3005 RMK A01 T01990119  RH  060%=      5-min Rain = 0
KCH1 121435Z 29003KT 20/12 A3005 RMK A01 T01990124  RH  062%=      5-min Rain = 0
KCH1 121436Z 29003KT 20/13 A3005 RMK A01 T02000126  RH  062%=      5-min Rain = 0
KCH1 121437Z 30002KT 20/13 A3005 RMK A01 T02000126  RH  062%=      5-min Rain = 0
KCH1 121438Z 32003KT 20/13 A3005 RMK A01 T02010125  RH  062%=      5-min Rain = 0
KCH1 121439Z 32002KT 20/12 A3005 RMK A01 T02020124  RH  061%=      5-min Rain = 0
KCH1 121440Z 30002KT 20/13 A3005 RMK A01 T02040127  RH  061%=      5-min Rain = 0
KCH1 121441Z 31003KT 21/12 A3005 RMK A01 T02050122  RH  059%=      5-min Rain = 0
KCH1 121442Z 32002KT 21/12 A3005 RMK A01 T02060121  RH  058%=      5-min Rain = 0
KCH1 121443Z 32002KT 21/12 A3005 RMK A01 T02070121  RH  058%=      5-min Rain = 0
KCH1 121444Z 30003KT 21/12 A3005 RMK A01 T02080121  RH  057%=      5-min Rain = 0
KCH1 121445Z 30003KT 21/12 A3005 RMK A01 T02080121  RH  057%=      5-min Rain = 0
KCH1 121446Z 30003KT 21/12 A3005 RMK A01 T02080121  RH  057%=      5-min Rain = 0
KCH1 121447Z 31003KT 21/12 A3005 RMK A01 T02080122  RH  058%=      5-min Rain = 0
KCH1 121448Z 29002KT 21/12 A3005 RMK A01 T02090123  RH  058%=      5-min Rain = 0
KCH1 121449Z 30004KT 21/12 A3005 RMK A01 T02100121  RH  057%=      5-min Rain = 0
KCH1 121450Z 30003KT 21/12 A3005 RMK A01 T02110121  RH  056%=      5-min Rain = 0
KCH1 121451Z 30003KT 21/12 A3005 RMK A01 T02110119  RH  055%=      5-min Rain = 0
KCH1 121452Z 31003KT 21/12 A3005 RMK A01 T02120119  RH  055%=      5-min Rain = 0
KCH1 121453Z 32003KT 21/12 A3005 RMK A01 T02130120  RH  056%=      5-min Rain = 0
KCH1 121454Z 32002KT 21/12 A3005 RMK A01 T02130122  RH  056%=      5-min Rain = 0
KCH1 121455Z 31002KT 21/12 A3005 RMK A01 T02140123  RH  056%=      5-min Rain = 0
KCH1 121456Z 32003KT 22/12 A3005 RMK A01 T02150119  RH  054%=      5-min Rain = 0
KCH1 121457Z 31003KT 22/12 A3005 RMK A01 T02160120  RH  054%=      5-min Rain = 0
KCH1 121458Z 29002KT 22/12 A3005 RMK A01 T02170122  RH  055%=      5-min Rain = 0
KCH1 121459Z 30002KT 22/12 A3005 RMK A01 T02180124  RH  055%=      5-min Rain = 0
KCH1 121500Z 31003KT 22/13 A3005 RMK A01 T02190125  RH  055%=      5-min Rain = 0
KCH1 121501Z 29003KT 22/12 A3005 RMK A01 T02210123  RH  054%=      5-min Rain = 0
KCH1 121502Z 30002KT 22/12 A3005 RMK A01 T02220122  RH  053%=      5-min Rain = 0
KCH1 121503Z 29003KT 22/12 A3005 RMK A01 T02220119  RH  052%=      5-min Rain = 0
KCH1 121504Z 29003KT 22/12 A3005 RMK A01 T02220121  RH  053%=      5-min Rain = 0
KCH1 121505Z 30003KT 22/12 A3005 RMK A01 T02220123  RH  053%=      5-min Rain = 0
KCH1 121506Z 30003KT 22/12 A3005 RMK A01 T02240122  RH  052%=      5-min Rain = 0
KCH1 121507Z 32003KT 22/12 A3005 RMK A01 T02240119  RH  051%=      5-min Rain = 0
KCH1 121508Z 31003KT 23/12 A3005 RMK A01 T02250122  RH  052%=      5-min Rain = 0
KCH1 121509Z 32002KT 23/12 A3005 RMK A01 T02260119  RH  051%=      5-min Rain = 0
KCH1 121510Z 30002KT 23/12 A3005 RMK A01 T02270121  RH  051%=      5-min Rain = 0
KCH1 121511Z 31002KT 23/12 A3005 RMK A01 T02280123  RH  052%=      5-min Rain = 0
KCH1 121512Z 30002KT 23/12 A3005 RMK A01 T02280123  RH  051%=      5-min Rain = 0
KCH1 121513Z 31003KT 23/12 A3005 RMK A01 T02290123  RH  051%=      5-min Rain = 0
KCH1 121514Z 32003KT 23/13 A3005 RMK A01 T02300125  RH  052%=      5-min Rain = 0
KCH1 121515Z 33003KT 23/12 A3005 RMK A01 T02310123  RH  051%=      5-min Rain = 0
KCH1 121516Z 30002KT 23/13 A3005 RMK A01 T02310125  RH  051%=      5-min Rain = 0
KCH1 121517Z 29003KT 23/13 A3005 RMK A01 T02320126  RH  051%=      5-min Rain = 0
KCH1 121518Z 29003KT 23/13 A3005 RMK A01 T02320126  RH  051%=      5-min Rain = 0
KCH1 121519Z 27002KT 23/12 A3005 RMK A01 T02300123  RH  051%=      5-min Rain = 0
KCH1 121520Z 30003KT 23/13 A3005 RMK A01 T02300125  RH  052%=      5-min Rain = 0
KCH1 121521Z 29003KT 23/13 A3005 RMK A01 T02290126  RH  052%=      5-min Rain = 0
KCH1 121522Z 28002KT 23/13 A3005 RMK A01 T02300126  RH  052%=      5-min Rain = 0
KCH1 121523Z 28001KT 23/13 A3005 RMK A01 T02310126  RH  052%=      5-min Rain = 0
KCH1 121524Z 29002KT 23/13 A3005 RMK A01 T02320127  RH  052%=      5-min Rain = 0
KCH1 121525Z 27001KT 23/13 A3005 RMK A01 T02320125  RH  051%=      5-min Rain = 0
KCH1 121526Z 26001KT 23/13 A3005 RMK A01 T02330128  RH  052%=      5-min Rain = 0
KCH1 121527Z 28002KT 24/13 A3005 RMK A01 T02350130  RH  052%=      5-min Rain = 0
KCH1 121528Z 24003KT 24/13 A3005 RMK A01 T02370127  RH  050%=      5-min Rain = 0
KCH1 121529Z 24002KT 24/13 A3005 RMK A01 T02380129  RH  050%=      5-min Rain = 0
KCH1 121530Z 28002KT 24/13 A3005 RMK A01 T02390128  RH  050%=      5-min Rain = 0
KCH1 121531Z 33001KT 24/13 A3005 RMK A01 T02400131  RH  050%=      5-min Rain = 0
KCH1 121532Z 32002KT 24/13 A3005 RMK A01 T02420132  RH  050%=      5-min Rain = 0
KCH1 121533Z 30004KT 24/13 A3005 RMK A01 T02430129  RH  049%=      5-min Rain = 0
KCH1 121534Z 31003KT 24/13 A3005 RMK A01 T02430128  RH  048%=      5-min Rain = 0
KCH1 121535Z 31003KT 24/13 A3005 RMK A01 T02420128  RH  049%=      5-min Rain = 0
KCH1 121536Z 29003KT 24/13 A3005 RMK A01 T02410127  RH  049%=      5-min Rain = 0
KCH1 121537Z 30003KT 24/13 A3005 RMK A01 T02410128  RH  049%=      5-min Rain = 0
KCH1 121538Z 30002KT 24/13 A3005 RMK A01 T02410129  RH  049%=      5-min Rain = 0
KCH1 121539Z 32002KT 24/13 A3005 RMK A01 T02420127  RH  049%=      5-min Rain = 0
KCH1 121540Z 30003KT 24/13 A3005 RMK A01 T02420127  RH  049%=      5-min Rain = 0
KCH1 121541Z 31002KT 24/13 A3005 RMK A01 T02430130  RH  049%=      5-min Rain = 0
KCH1 121542Z 29003KT 25/13 A3005 RMK A01 T02450132  RH  049%=      5-min Rain = 0
KCH1 121543Z 27003KT 25/13 A3005 RMK A01 T02470127  RH  047%=      5-min Rain = 0
KCH1 121544Z 24002KT 25/13 A3005 RMK A01 T02470128  RH  048%=      5-min Rain = 0
KCH1 121545Z 25001KT 25/13 A3005 RMK A01 T02470128  RH  048%=      5-min Rain = 0
KCH1 121546Z 23001KT 25/13 A3005 RMK A01 T02480130  RH  048%=      5-min Rain = 0
KCH1 121547Z 21001KT 25/13 A3005 RMK A01 T02490130  RH  047%=      5-min Rain = 0
KCH1 121548Z 31002KT 25/13 A3005 RMK A01 T02510131  RH  047%=      5-min Rain = 0
KCH1 121549Z 31004KT 25/13 A3005 RMK A01 T02520128  RH  046%=      5-min Rain = 0
KCH1 121550Z 31001KT 25/13 A3005 RMK A01 T02510128  RH  046%=      5-min Rain = 0
KCH1 121551Z 30002KT 25/13 A3005 RMK A01 T02510127  RH  046%=      5-min Rain = 0
KCH1 121552Z 29001KT 25/13 A3005 RMK A01 T02500127  RH  046%=      5-min Rain = 0
KCH1 121553Z 31003KT 25/13 A3005 RMK A01 T02500127  RH  046%=      5-min Rain = 0
KCH1 121554Z 31003KT 25/13 A3005 RMK A01 T02520128  RH  046%=      5-min Rain = 0
KCH1 121555Z 29003KT 25/13 A3005 RMK A01 T02540130  RH  046%=      5-min Rain = 0
KCH1 121556Z 27003KT 26/13 A3005 RMK A01 T02560131  RH  046%=      5-min Rain = 0
KCH1 121557Z 25003KT 26/13 A3005 RMK A01 T02580127  RH  044%=      5-min Rain = 0
KCH1 121558Z 25003KT 26/13 A3005 RMK A01 T02580128  RH  044%=      5-min Rain = 0
KCH1 121559Z 25003KT 26/13 A3005 RMK A01 T02590127  RH  044%=      5-min Rain = 0
KCH1 121600Z 25002KT 26/13 A3005 RMK A01 T02600125  RH  043%=      5-min Rain = 0
KCH1 121601Z 27002KT 26/13 A3005 RMK A01 T02600129  RH  044%=      5-min Rain = 0
KCH1 121602Z 25003KT 26/13 A3004 RMK A01 T02600128  RH  044%=      5-min Rain = 0
KCH1 121603Z 27003KT 26/13 A3004 RMK A01 T02620126  RH  043%=      5-min Rain = 0
KCH1 121604Z 27003KT 26/13 A3004 RMK A01 T02620126  RH  043%=      5-min Rain = 0
KCH1 121605Z 26003KT 26/13 A3004 RMK A01 T02630129  RH  044%=      5-min Rain = 0
KCH1 121606Z 28004KT 26/13 A3004 RMK A01 T02640127  RH  043%=      5-min Rain = 0
KCH1 121607Z 27003KT 26/12 A3004 RMK A01 T02640124  RH  042%=      5-min Rain = 0
KCH1 121608Z 28004KT 26/12 A3004 RMK A01 T02620122  RH  042%=      5-min Rain = 0
KCH1 121609Z 27002KT 26/12 A3004 RMK A01 T02620121  RH  041%=      5-min Rain = 0
KCH1 121610Z 28003KT 26/12 A3004 RMK A01 T02620121  RH  042%=      5-min Rain = 0
KCH1 121611Z 26003KT 26/12 A3004 RMK A01 T02620121  RH  041%=      5-min Rain = 0
KCH1 121612Z 26003KT 26/12 A3004 RMK A01 T02630124  RH  042%=      5-min Rain = 0
KCH1 121613Z 27003KT 27/12 A3004 RMK A01 T02670124  RH  041%=      5-min Rain = 0
KCH1 121614Z 29004KT 27/12 A3004 RMK A01 T02690122  RH  040%=      5-min Rain = 0
KCH1 121615Z 27004KT 27/12 A3004 RMK A01 T02690118  RH  039%=      5-min Rain = 0
KCH1 121616Z 29004KT 27/12 A3004 RMK A01 T02680121  RH  040%=      5-min Rain = 0
KCH1 121617Z 32003KT 27/12 A3004 RMK A01 T02680118  RH  039%=      5-min Rain = 0
KCH1 121618Z 31002KT 27/12 A3004 RMK A01 T02670121  RH  040%=      5-min Rain = 0
KCH1 121619Z 31003KT 27/13 A3004 RMK A01 T02690126  RH  041%=      5-min Rain = 0
KCH1 121620Z 31006KT 27/12 A3004 RMK A01 T02720122  RH  040%=      5-min Rain = 0
KCH1 121621Z 29004KT 27/11 A3004 RMK A01 T02710114  RH  038%=      5-min Rain = 0
KCH1 121622Z 29004KT 27/11 A3004 RMK A01 T02680113  RH  038%=      5-min Rain = 0
KCH1 121623Z 28004KT 27/12 A3004 RMK A01 T02670117  RH  039%=      5-min Rain = 0
KCH1 121624Z 28002KT 27/12 A3004 RMK A01 T02680115  RH  038%=      5-min Rain = 0
KCH1 121625Z 32003KT 27/12 A3004 RMK A01 T02680118  RH  039%=      5-min Rain = 0
KCH1 121626Z 31005KT 27/12 A3004 RMK A01 T02700118  RH  039%=      5-min Rain = 0
KCH1 121627Z 30006KT 27/12 A3004 RMK A01 T02700117  RH  039%=      5-min Rain = 0
KCH1 121628Z 32005KT 27/12 A3004 RMK A01 T02700120  RH  039%=      5-min Rain = 0
KCH1 121629Z 31004KT 27/11 A3004 RMK A01 T02700114  RH  038%=      5-min Rain = 0
KCH1 121630Z 29004KT 27/12 A3004 RMK A01 T02700116  RH  038%=      5-min Rain = 0
KCH1 121631Z 28003KT 27/12 A3004 RMK A01 T02700116  RH  038%=      5-min Rain = 0
KCH1 121632Z 28003KT 27/12 A3004 RMK A01 T02710115  RH  038%=      5-min Rain = 0
KCH1 121633Z 30001KT 27/11 A3004 RMK A01 T02700113  RH  038%=      5-min Rain = 0
KCH1 121634Z 28002KT 27/12 A3004 RMK A01 T02700121  RH  040%=      5-min Rain = 0
KCH1 121635Z 32005KT 27/12 A3003 RMK A01 T02730120  RH  039%=      5-min Rain = 0
KCH1 121636Z 30005KT 27/12 A3003 RMK A01 T02730119  RH  038%=      5-min Rain = 0
KCH1 121637Z 30004KT 27/12 A3004 RMK A01 T02730118  RH  038%=      5-min Rain = 0
KCH1 121638Z 29004KT 27/12 A3004 RMK A01 T02710119  RH  039%=      5-min Rain = 0
KCH1 121639Z 28005KT 27/12 A3003 RMK A01 T02720119  RH  039%=      5-min Rain = 0
KCH1 121640Z 28006KT 27/12 A3003 RMK A01 T02730116  RH  037%=      5-min Rain = 0
KCH1 121641Z 26003KT 27/11 A3003 RMK A01 T02740114  RH  037%=      5-min Rain = 0
KCH1 121642Z 29004KT 28/12 A3003 RMK A01 T02750118  RH  038%=      5-min Rain = 0
KCH1 121643Z 30004KT 28/12 A3003 RMK A01 T02750118  RH  038%=      5-min Rain = 0
KCH1 121644Z 33006KT 28/12 A3003 RMK A01 T02770116  RH  037%=      5-min Rain = 0
KCH1 121645Z 34004KT 28/12 A3003 RMK A01 T02770115  RH  036%=      5-min Rain = 0
KCH1 121646Z 32008KT 28/12 A3003 RMK A01 T02780117  RH  037%=      5-min Rain = 0
KCH1 121647Z 34005KT 28/11 A3003 RMK A01 T02780114  RH  036%=      5-min Rain = 0
KCH1 121648Z 31001KT 28/11 A3003 RMK A01 T02760112  RH  036%=      5-min Rain = 0
KCH1 121649Z 00001KT 28/12 A3003 RMK A01 T02760119  RH  038%=      5-min Rain = 0
KCH1 121650Z 01004KT 28/11 A3003 RMK A01 T02770114  RH  036%=      5-min Rain = 0
KCH1 121651Z 05001KT 28/11 A3003 RMK A01 T02770111  RH  036%=      5-min Rain = 0
KCH1 121652Z 30001KT 28/11 A3003 RMK A01 T02760113  RH  036%=      5-min Rain = 0
KCH1 121653Z 28002KT 28/11 A3003 RMK A01 T02760114  RH  036%=      5-min Rain = 0
KCH1 121654Z 28003KT 28/12 A3003 RMK A01 T02770116  RH  037%=      5-min Rain = 0
KCH1 121655Z 30004KT 28/12 A3003 RMK A01 T02790118  RH  037%=      5-min Rain = 0
KCH1 121656Z 30005KT 28/12 A3003 RMK A01 T02800117  RH  036%=      5-min Rain = 0
KCH1 121657Z 30004KT 28/12 A3003 RMK A01 T02800115  RH  036%=      5-min Rain = 0
KCH1 121658Z 31003KT 28/12 A3003 RMK A01 T02780115  RH  036%=      5-min Rain = 0
KCH1 121659Z 31003KT 28/12 A3003 RMK A01 T02780115  RH  036%=      5-min Rain = 0
KCH1 121700Z 31003KT 28/12 A3003 RMK A01 T02790115  RH  036%=      5-min Rain = 0
KCH1 121701Z 32003KT 28/12 A3002 RMK A01 T02790118  RH  037%=      5-min Rain = 0
KCH1 121702Z 31004KT 28/12 A3002 RMK A01 T02800116  RH  036%=      5-min Rain = 0
KCH1 121703Z 31004KT 28/12 A3002 RMK A01 T02810118  RH  036%=      5-min Rain = 0
KCH1 121704Z 30003KT 28/12 A3002 RMK A01 T02820118  RH  036%=      5-min Rain = 0
KCH1 121705Z 30002KT 28/12 A3002 RMK A01 T02840118  RH  036%=      5-min Rain = 0
KCH1 121706Z 30004KT 29/12 A3002 RMK A01 T02850118  RH  036%=      5-min Rain = 0
KCH1 121707Z 29004KT 29/12 A3002 RMK A01 T02850120  RH  036%=      5-min Rain = 0
KCH1 121708Z 29006KT 29/12 A3002 RMK A01 T02870121  RH  036%=      5-min Rain = 0
KCH1 121709Z 30006KT 29/12 A3002 RMK A01 T02880119  RH  035%=      5-min Rain = 0
KCH1 121710Z 26004KT 29/12 A3002 RMK A01 T02870118  RH  035%=      5-min Rain = 0
KCH1 121711Z 24006KT 29/12 A3002 RMK A01 T02850116  RH  035%=      5-min Rain = 0
KCH1 121712Z 26005KT 28/12 A3002 RMK A01 T02830117  RH  036%=      5-min Rain = 0
KCH1 121713Z 29006KT 28/12 A3002 RMK A01 T02840120  RH  036%=      5-min Rain = 0
KCH1 121714Z 29004KT 29/12 A3002 RMK A01 T02860117  RH  035%=      5-min Rain = 0
KCH1 121715Z 30004KT 29/12 A3002 RMK A01 T02860120  RH  036%=      5-min Rain = 0
KCH1 121716Z 27005KT 29/12 A3002 RMK A01 T02890122  RH  036%=      5-min Rain = 0
KCH1 121717Z 28003KT 29/12 A3002 RMK A01 T02900121  RH  035%=      5-min Rain = 0
KCH1 121718Z 28002KT 29/12 A3002 RMK A01 T02920120  RH  035%=      5-min Rain = 0
KCH1 121719Z 32004KT 29/12 A3002 RMK A01 T02930124  RH  035%=      5-min Rain = 0
KCH1 121720Z 30004KT 29/12 A3002 RMK A01 T02940122  RH  035%=      5-min Rain = 0
KCH1 121721Z 29004KT 29/12 A3002 RMK A01 T02940117  RH  033%=      5-min Rain = 0
KCH1 121722Z 32003KT 29/12 A3002 RMK A01 T02910118  RH  034%=      5-min Rain = 0
KCH1 121723Z 29006KT 29/12 A3001 RMK A01 T02900118  RH  034%=      5-min Rain = 0
KCH1 121724Z 29003KT 29/12 A3001 RMK A01 T02900117  RH  034%=      5-min Rain = 0
KCH1 121725Z 32003KT 29/12 A3001 RMK A01 T02890118  RH  035%=      5-min Rain = 0
KCH1 121726Z 31003KT 29/12 A3001 RMK A01 T02890118  RH  035%=      5-min Rain = 0
KCH1 121727Z 26002KT 29/12 A3001 RMK A01 T02900120  RH  035%=      5-min Rain = 0
KCH1 121728Z 24002KT 29/12 A3001 RMK A01 T02910119  RH  035%=      5-min Rain = 0
KCH1 121729Z 31001KT 29/12 A3001 RMK A01 T02920121  RH  035%=      5-min Rain = 0
KCH1 121730Z 03002KT 29/12 A3001 RMK A01 T02940122  RH  035%=      5-min Rain = 0
KCH1 121731Z 01004KT 30/12 A3001 RMK A01 T02970122  RH  034%=      5-min Rain = 0
KCH1 121732Z 36007KT 30/12 A3001 RMK A01 T02980121  RH  034%=      5-min Rain = 0
KCH1 121733Z 01006KT 30/12 A3001 RMK A01 T02980120  RH  033%=      5-min Rain = 0
KCH1 121734Z 02005KT 30/12 A3001 RMK A01 T02970119  RH  033%=      5-min Rain = 0
KCH1 121735Z 02004KT 30/12 A3001 RMK A01 T02970121  RH  034%=      5-min Rain = 0
KCH1 121736Z 01003KT 30/12 A3001 RMK A01 T02980118  RH  033%=      5-min Rain = 0
KCH1 121737Z 29003KT 30/12 A3001 RMK A01 T02970118  RH  033%=      5-min Rain = 0
KCH1 121738Z 32005KT 30/12 A3001 RMK A01 T02950122  RH  034%=      5-min Rain = 0
KCH1 121739Z 33005KT 30/12 A3001 RMK A01 T02970123  RH  034%=      5-min Rain = 0
KCH1 121740Z 35004KT 30/12 A3001 RMK A01 T02990122  RH  034%=      5-min Rain = 0
KCH1 121741Z 31004KT 30/12 A3001 RMK A01 T02990123  RH  034%=      5-min Rain = 0
KCH1 121742Z 26004KT 30/12 A3001 RMK A01 T02990120  RH  033%=      5-min Rain = 0
KCH1 121743Z 24005KT 30/12 A3001 RMK A01 T02970117  RH  033%=      5-min Rain = 0
KCH1 121744Z 26004KT 29/12 A3001 RMK A01 T02930120  RH  034%=      5-min Rain = 0
KCH1 121745Z 27003KT 29/12 A3001 RMK A01 T02920122  RH  035%=      5-min Rain = 0
KCH1 121746Z 29007KT 29/12 A3001 RMK A01 T02940121  RH  034%=      5-min Rain = 0
KCH1 121747Z 31005KT 30/12 A3001 RMK A01 T02950119  RH  034%=      5-min Rain = 0
KCH1 121748Z 30006KT 29/12 A30 RMK A01 T02940119  RH  034%=      5-min Rain = 0
KCH1 121749Z 30006KT 29/12 A30 RMK A01 T02940119  RH  034%=      5-min Rain = 0
KCH1 121750Z 29005KT 29/12 A30 RMK A01 T02940119  RH  034%=      5-min Rain = 0
KCH1 121751Z 28006KT 29/12 A30 RMK A01 T02940120  RH  034%=      5-min Rain = 0
KCH1 121752Z 29004KT 29/12 A30 RMK A01 T02940120  RH  034%=      5-min Rain = 0
KCH1 121753Z 30004KT 30/12 A30 RMK A01 T02950119  RH  034%=      5-min Rain = 0
KCH1 121754Z 29004KT 30/12 A30 RMK A01 T02960120  RH  034%=      5-min Rain = 0
KCH1 121755Z 28004KT 30/12 A30 RMK A01 T02960120  RH  034%=      5-min Rain = 0
KCH1 121756Z 30004KT 30/12 A30 RMK A01 T02960120  RH  034%=      5-min Rain = 0
KCH1 121757Z 28004KT 30/12 A30 RMK A01 T02960120  RH  034%=      5-min Rain = 0
KCH1 121758Z 28006KT 30/12 A30 RMK A01 T02960119  RH  033%=      5-min Rain = 0
KCH1 121759Z 31005KT 30/12 A30 RMK A01 T02970124  RH  035%=      5-min Rain = 0
KCH1 121800Z 32009KT 30/13 A30 RMK A01 T03000127  RH  035%=      5-min Rain = 0
KCH1 121801Z 32007KT 30/12 A30 RMK A01 T03030122  RH  033%=      5-min Rain = 0
KCH1 121802Z 31006KT 30/12 A30 RMK A01 T03040120  RH  032%=      5-min Rain = 0
KCH1 121803Z 30006KT 30/12 A30 RMK A01 T03010120  RH  033%=      5-min Rain = 0
KCH1 121804Z 31006KT 30/12 A30 RMK A01 T03000118  RH  033%=      5-min Rain = 0
KCH1 121805Z 33004KT 30/12 A30 RMK A01 T02980118  RH  033%=      5-min Rain = 0
KCH1 121806Z 32005KT 30/12 A30 RMK A01 T02970119  RH  033%=      5-min Rain = 0
KCH1 121807Z 32001KT 30/12 A30 RMK A01 T02980117  RH  033%=      5-min Rain = 0
KCH1 121808Z 25002KT 30/12 A30 RMK A01 T02980117  RH  033%=      5-min Rain = 0
KCH1 121809Z 27006KT 30/12 A30 RMK A01 T02980121  RH  033%=      5-min Rain = 0
KCH1 121810Z 27005KT 30/12 A30 RMK A01 T02990120  RH  033%=      5-min Rain = 0
KCH1 121811Z 29004KT 30/12 A30 RMK A01 T03010124  RH  034%=      5-min Rain = 0
KCH1 121812Z 27004KT 30/12 A2999 RMK A01 T03030120  RH  033%=      5-min Rain = 0
KCH1 121813Z 28005KT 30/12 A2999 RMK A01 T03020120  RH  033%=      5-min Rain = 0
KCH1 121814Z 30005KT 30/12 A2999 RMK A01 T03000119  RH  033%=      5-min Rain = 0
KCH1 121815Z 29005KT 30/12 A2999 RMK A01 T02990119  RH  033%=      5-min Rain = 0
KCH1 121816Z 28003KT 30/12 A2999 RMK A01 T02990122  RH  034%=      5-min Rain = 0
KCH1 121817Z 28004KT 30/13 A2999 RMK A01 T03030126  RH  034%=      5-min Rain = 0
KCH1 121818Z 28007KT 31/12 A2999 RMK A01 T03070124  RH  033%=      5-min Rain = 0
KCH1 121819Z 28006KT 31/12 A2999 RMK A01 T03080118  RH  031%=      5-min Rain = 0
KCH1 121820Z 27006KT 31/12 A2999 RMK A01 T03050121  RH  032%=      5-min Rain = 0
KCH1 121821Z 27007KT 30/12 A2999 RMK A01 T03040120  RH  032%=      5-min Rain = 0
KCH1 121822Z 25006KT 30/12 A2999 RMK A01 T03030119  RH  032%=      5-min Rain = 0
KCH1 121823Z 24005KT 30/12 A2999 RMK A01 T03010117  RH  032%=      5-min Rain = 0
KCH1 121824Z 23002KT 30/12 A2999 RMK A01 T02990122  RH  034%=      5-min Rain = 0
KCH1 121825Z 29004KT 30/12 A2999 RMK A01 T03010121  RH  033%=      5-min Rain = 0
KCH1 121826Z 31004KT 30/12 A2999 RMK A01 T03020118  RH  032%=      5-min Rain = 0
KCH1 121827Z 27004KT 30/12 A2999 RMK A01 T03010118  RH  033%=      5-min Rain = 0
KCH1 121828Z 25006KT 30/12 A2999 RMK A01 T03010119  RH  033%=      5-min Rain = 0
KCH1 121829Z 28006KT 30/12 A2998 RMK A01 T03010122  RH  033%=      5-min Rain = 0
KCH1 121830Z 32006KT 30/12 A2999 RMK A01 T03010121  RH  033%=      5-min Rain = 0
KCH1 121831Z 31005KT 30/12 A2998 RMK A01 T03030124  RH  033%=      5-min Rain = 0
KCH1 121832Z 30005KT 31/12 A2998 RMK A01 T03050120  RH  032%=      5-min Rain = 0
KCH1 121833Z 29007KT 30/12 A2998 RMK A01 T03040122  RH  033%=      5-min Rain = 0
KCH1 121834Z 28008KT 31/12 A2998 RMK A01 T03050121  RH  032%=      5-min Rain = 0
KCH1 121835Z 28007KT 31/12 A2998 RMK A01 T03050122  RH  033%=      5-min Rain = 0
KCH1 121836Z 28005KT 30/12 A2998 RMK A01 T03040118  RH  032%=      5-min Rain = 0
KCH1 121837Z 25006KT 30/12 A2998 RMK A01 T03020122  RH  033%=      5-min Rain = 0
KCH1 121838Z 26005KT 31/12 A2998 RMK A01 T03050121  RH  032%=      5-min Rain = 0
KCH1 121839Z 26004KT 31/12 A2998 RMK A01 T03060122  RH  032%=      5-min Rain = 0
KCH1 121840Z 26007KT 31/12 A2998 RMK A01 T03060122  RH  032%=      5-min Rain = 0
KCH1 121841Z 28007KT 31/12 A2998 RMK A01 T03070121  RH  032%=      5-min Rain = 0
KCH1 121842Z 25005KT 31/12 A2998 RMK A01 T03070120  RH  032%=      5-min Rain = 0
KCH1 121843Z 27004KT 31/12 A2998 RMK A01 T03070124  RH  032%=      5-min Rain = 0
KCH1 121844Z 25007KT 31/12 A2997 RMK A01 T03090124  RH  032%=      5-min Rain = 0
KCH1 121845Z 27004KT 31/12 A2997 RMK A01 T03110124  RH  032%=      5-min Rain = 0
KCH1 121846Z 30003KT 31/12 A2997 RMK A01 T03140124  RH  031%=      5-min Rain = 0
KCH1 121847Z 03002KT 32/12 A2997 RMK A01 T03150123  RH  031%=      5-min Rain = 0
KCH1 121848Z 01004KT 32/13 A2998 RMK A01 T03170125  RH  031%=      5-min Rain = 0
KCH1 121849Z 02005KT 32/12 A2998 RMK A01 T03180121  RH  030%=      5-min Rain = 0
KCH1 121850Z 04004KT 32/12 A2998 RMK A01 T03170124  RH  031%=      5-min Rain = 0
KCH1 121851Z 03003KT 32/12 A2997 RMK A01 T03180124  RH  031%=      5-min Rain = 0
KCH1 121852Z 07003KT 32/12 A2997 RMK A01 T03190120  RH  030%=      5-min Rain = 0
KCH1 121853Z 09002KT 32/12 A2997 RMK A01 T03160120  RH  030%=      5-min Rain = 0
KCH1 121854Z 02003KT 31/12 A2997 RMK A01 T03140123  RH  031%=      5-min Rain = 0
KCH1 121855Z 04003KT 32/12 A2997 RMK A01 T03150121  RH  031%=      5-min Rain = 0
KCH1 121856Z 07004KT 32/12 A2997 RMK A01 T03150119  RH  030%=      5-min Rain = 0
KCH1 121857Z 34002KT 32/12 A2997 RMK A01 T03150123  RH  031%=      5-min Rain = 0
KCH1 121858Z 34006KT 32/12 A2997 RMK A01 T03150121  RH  030%=      5-min Rain = 0
KCH1 121859Z 30005KT 31/12 A2997 RMK A01 T03140121  RH  031%=      5-min Rain = 0
KCH1 121900Z 29005KT 31/12 A2997 RMK A01 T03140122  RH  031%=      5-min Rain = 0
KCH1 121901Z 29005KT 31/12 A2997 RMK A01 T03140124  RH  031%=      5-min Rain = 0
KCH1 121902Z 28005KT 32/12 A2997 RMK A01 T03150121  RH  030%=      5-min Rain = 0
KCH1 121903Z 28005KT 32/12 A2996 RMK A01 T03150123  RH  031%=      5-min Rain = 0
KCH1 121904Z 27006KT 32/12 A2996 RMK A01 T03150122  RH  031%=      5-min Rain = 0
KCH1 121905Z 25006KT 31/12 A2996 RMK A01 T03140122  RH  031%=      5-min Rain = 0
KCH1 121906Z 26007KT 32/12 A2996 RMK A01 T03150122  RH  031%=      5-min Rain = 0
KCH1 121907Z 27006KT 31/12 A2996 RMK A01 T03140123  RH  031%=      5-min Rain = 0
KCH1 121908Z 27006KT 32/12 A2996 RMK A01 T03160121  RH  030%=      5-min Rain = 0
KCH1 121909Z 26005KT 31/12 A2996 RMK A01 T03140117  RH  030%=      5-min Rain = 0
KCH1 121910Z 25007KT 31/12 A2996 RMK A01 T03120119  RH  031%=      5-min Rain = 0
KCH1 121911Z 25005KT 31/12 A2996 RMK A01 T03110119  RH  031%=      5-min Rain = 0
KCH1 121912Z 23005KT 31/12 A2996 RMK A01 T03110119  RH  031%=      5-min Rain = 0
KCH1 121913Z 22001KT 31/12 A2996 RMK A01 T03120124  RH  032%=      5-min Rain = 0
KCH1 121914Z 25007KT 31/12 A2996 RMK A01 T03140120  RH  031%=      5-min Rain = 0
KCH1 121915Z 26007KT 32/12 A2996 RMK A01 T03150121  RH  031%=      5-min Rain = 0
KCH1 121916Z 29004KT 31/12 A2996 RMK A01 T03140118  RH  030%=      5-min Rain = 0
KCH1 121917Z 29003KT 31/12 A2996 RMK A01 T03130120  RH  031%=      5-min Rain = 0
KCH1 121918Z 31005KT 31/12 A2996 RMK A01 T03140122  RH  031%=      5-min Rain = 0
KCH1 121919Z 33007KT 32/12 A2995 RMK A01 T03160120  RH  030%=      5-min Rain = 0
KCH1 121920Z 32005KT 32/12 A2995 RMK A01 T03180118  RH  029%=      5-min Rain = 0
KCH1 121921Z 31005KT 32/12 A2995 RMK A01 T03180118  RH  029%=      5-min Rain = 0
KCH1 121922Z 30004KT 32/12 A2995 RMK A01 T03180119  RH  030%=      5-min Rain = 0
KCH1 121923Z 31002KT 32/12 A2995 RMK A01 T03190121  RH  030%=      5-min Rain = 0
KCH1 121924Z 34002KT 32/12 A2995 RMK A01 T03210118  RH  029%=      5-min Rain = 0
KCH1 121925Z 30003KT 32/12 A2995 RMK A01 T03200119  RH  029%=      5-min Rain = 0
KCH1 121926Z 31009KT 32/12 A2995 RMK A01 T03200122  RH  030%=      5-min Rain = 0
KCH1 121927Z 29009KT 32/12 A2995 RMK A01 T03180120  RH  030%=      5-min Rain = 0
KCH1 121928Z 29008KT 32/12 A2995 RMK A01 T03180121  RH  030%=      5-min Rain = 0
KCH1 121929Z 29008KT 32/12 A2995 RMK A01 T03190121  RH  030%=      5-min Rain = 0
KCH1 121930Z 30007KT 32/12 A2995 RMK A01 T03180121  RH  030%=      5-min Rain = 0
KCH1 121931Z 32008KT 32/12 A2994 RMK A01 T03170122  RH  031%=      5-min Rain = 0
KCH1 121932Z 31007KT 32/13 A2994 RMK A01 T03170125  RH  031%=      5-min Rain = 0
KCH1 121933Z 28009KT 32/12 A2994 RMK A01 T03200124  RH  030%=      5-min Rain = 0
KCH1 121934Z 28008KT 32/12 A2994 RMK A01 T03210119  RH  029%=      5-min Rain = 0
KCH1 121935Z 30006KT 32/12 A2994 RMK A01 T03200120  RH  029%=      5-min Rain = 0
KCH1 121936Z 30006KT 32/12 A2994 RMK A01 T03190121  RH  030%=      5-min Rain = 0
KCH1 121937Z 28005KT 32/12 A2994 RMK A01 T03200124  RH  030%=      5-min Rain = 0
KCH1 121938Z 28008KT 32/12 A2994 RMK A01 T03220120  RH  029%=      5-min Rain = 0
KCH1 121939Z 28007KT 32/12 A2994 RMK A01 T03210123  RH  030%=      5-min Rain = 0
KCH1 121940Z 29006KT 32/12 A2994 RMK A01 T03210119  RH  029%=      5-min Rain = 0
KCH1 121941Z 29007KT 32/12 A2994 RMK A01 T03190121  RH  030%=      5-min Rain = 0
KCH1 121942Z 27006KT 32/12 A2994 RMK A01 T03190122  RH  030%=      5-min Rain = 0
KCH1 121943Z 26005KT 32/12 A2994 RMK A01 T03190119  RH  029%=      5-min Rain = 0
KCH1 121944Z 27008KT 32/12 A2994 RMK A01 T03200122  RH  030%=      5-min Rain = 0
KCH1 121945Z 28007KT 32/12 A2994 RMK A01 T03220123  RH  030%=      5-min Rain = 0
KCH1 121946Z 26007KT 32/12 A2994 RMK A01 T03220122  RH  029%=      5-min Rain = 0
KCH1 121947Z 26007KT 32/12 A2994 RMK A01 T03220120  RH  029%=      5-min Rain = 0
KCH1 121948Z 27005KT 32/12 A2994 RMK A01 T03200120  RH  029%=      5-min Rain = 0
KCH1 121949Z 25006KT 32/12 A2993 RMK A01 T03180119  RH  030%=      5-min Rain = 0
KCH1 121950Z 26008KT 32/12 A2993 RMK A01 T03180118  RH  029%=      5-min Rain = 0
KCH1 121951Z 25005KT 32/12 A2993 RMK A01 T03170119  RH  030%=      5-min Rain = 0
KCH1 121952Z 27006KT 32/12 A2993 RMK A01 T03170121  RH  030%=      5-min Rain = 0
KCH1 121953Z 27005KT 32/12 A2993 RMK A01 T03190120  RH  030%=      5-min Rain = 0
KCH1 121954Z 25007KT 32/12 A2993 RMK A01 T03210122  RH  030%=      5-min Rain = 0
KCH1 121955Z 27006KT 32/13 A2993 RMK A01 T03230125  RH  030%=      5-min Rain = 0
KCH1 121956Z 27004KT 33/13 A2993 RMK A01 T03270126  RH  029%=      5-min Rain = 0
KCH1 121957Z 27006KT 33/12 A2993 RMK A01 T03290124  RH  029%=      5-min Rain = 0
KCH1 121958Z 26006KT 33/12 A2993 RMK A01 T03280120  RH  028%=      5-min Rain = 0
KCH1 121959Z 28003KT 33/12 A2993 RMK A01 T03250120  RH  029%=      5-min Rain = 0
KCH1 122000Z 26002KT 32/12 A2993 RMK A01 T03240122  RH  029%=      5-min Rain = 0
KCH1 122001Z 26005KT 33/12 A2993 RMK A01 T03250120  RH  029%=      5-min Rain = 0
KCH1 122002Z 28006KT 33/12 A2993 RMK A01 T03250123  RH  029%=      5-min Rain = 0
KCH1 122003Z 29006KT 33/13 A2993 RMK A01 T03280125  RH  029%=      5-min Rain = 0
KCH1 122004Z 36010KT 33/12 A2993 RMK A01 T03310123  RH  028%=      5-min Rain = 0
KCH1 122005Z 01007KT 33/13 A2993 RMK A01 T03320125  RH  028%=      5-min Rain = 0
KCH1 122006Z 35005KT 33/12 A2993 RMK A01 T03320123  RH  028%=      5-min Rain = 0
KCH1 122007Z 33008KT 33/12 A2992 RMK A01 T03320123  RH  028%=      5-min Rain = 0
KCH1 122008Z 32008KT 33/12 A2992 RMK A01 T03310119  RH  028%=      5-min Rain = 0
KCH1 122009Z 30009KT 33/12 A2992 RMK A01 T03280120  RH  028%=      5-min Rain = 0
KCH1 122010Z 31008KT 33/12 A2992 RMK A01 T03260119  RH  028%=      5-min Rain = 0
KCH1 122011Z 31009KT 32/12 A2992 RMK A01 T03240119  RH  029%=      5-min Rain = 0
KCH1 122012Z 29008KT 33/12 A2992 RMK A01 T03250122  RH  029%=      5-min Rain = 0
KCH1 122013Z 30008KT 33/12 A2992 RMK A01 T03260119  RH  028%=      5-min Rain = 0
KCH1 122014Z 29006KT 33/12 A2992 RMK A01 T03250119  RH  029%=      5-min Rain = 0
KCH1 122015Z 34007KT 32/12 A2992 RMK A01 T03240124  RH  030%=      5-min Rain = 0
KCH1 122016Z 35005KT 33/12 A2992 RMK A01 T03250120  RH  029%=      5-min Rain = 0
KCH1 122017Z 32006KT 33/13 A2992 RMK A01 T03260128  RH  030%=      5-min Rain = 0
KCH1 122018Z 34008KT 33/13 A2992 RMK A01 T03290125  RH  029%=      5-min Rain = 0
KCH1 122019Z 35006KT 33/13 A2992 RMK A01 T03290128  RH  029%=      5-min Rain = 0
KCH1 122020Z 02003KT 33/13 A2992 RMK A01 T03320128  RH  029%=      5-min Rain = 0
KCH1 122021Z 02003KT 33/12 A2992 RMK A01 T03340123  RH  028%=      5-min Rain = 0
KCH1 122022Z 35003KT 34/12 A2992 RMK A01 T03350121  RH  027%=      5-min Rain = 0
KCH1 122023Z 05005KT 33/12 A2992 RMK A01 T03340121  RH  027%=      5-min Rain = 0
KCH1 122024Z 04005KT 33/12 A2992 RMK A01 T03330122  RH  028%=      5-min Rain = 0
KCH1 122025Z 06005KT 33/12 A2992 RMK A01 T03330122  RH  028%=      5-min Rain = 0
KCH1 122026Z 07007KT 33/12 A2992 RMK A01 T03320119  RH  027%=      5-min Rain = 0
KCH1 122027Z 06006KT 33/12 A2992 RMK A01 T03310121  RH  028%=      5-min Rain = 0
KCH1 122028Z 07007KT 33/12 A2992 RMK A01 T03310122  RH  028%=      5-min Rain = 0
KCH1 122029Z 05007KT 33/12 A2992 RMK A01 T03320120  RH  028%=      5-min Rain = 0
KCH1 122030Z 04006KT 33/12 A2992 RMK A01 T03320123  RH  028%=      5-min Rain = 0
KCH1 122031Z 32005KT 33/13 A2992 RMK A01 T03330125  RH  028%=      5-min Rain = 0
KCH1 122032Z 06003KT 34/13 A2992 RMK A01 T03350125  RH  028%=      5-min Rain = 0
KCH1 122033Z 00003G8KT 34/13 A2991 RMK A01 T03370125  RH  028%=      5-min Rain = 0
KCH1 122034Z 03005KT 34/13 A2991 RMK A01 T03390126  RH  028%=      5-min Rain = 0
KCH1 122035Z 06006KT 34/12 A2991 RMK A01 T03400124  RH  027%=      5-min Rain = 0
KCH1 122036Z 07005KT 34/12 A2991 RMK A01 T03380120  RH  027%=      5-min Rain = 0
KCH1 122037Z 02005KT 33/12 A2991 RMK A01 T03340119  RH  027%=      5-min Rain = 0
KCH1 122038Z 02006KT 33/12 A2991 RMK A01 T03320121  RH  028%=      5-min Rain = 0
KCH1 122039Z 03004KT 33/12 A2991 RMK A01 T03310119  RH  028%=      5-min Rain = 0
KCH1 122040Z 04005KT 33/12 A2991 RMK A01 T03310124  RH  029%=      5-min Rain = 0
KCH1 122041Z 06008KT 33/12 A2991 RMK A01 T03330121  RH  028%=      5-min Rain = 0
KCH1 122042Z 05004KT 33/12 A2991 RMK A01 T03310120  RH  028%=      5-min Rain = 0
KCH1 122043Z 02003KT 33/12 A2991 RMK A01 T03290118  RH  028%=      5-min Rain = 0
KCH1 122044Z 03004KT 33/12 A2991 RMK A01 T03290121  RH  028%=      5-min Rain = 0
KCH1 122045Z 05002KT 33/12 A2991 RMK A01 T03310124  RH  028%=      5-min Rain = 0
KCH1 122046Z 03003KT 33/12 A2991 RMK A01 T03330120  RH  027%=      5-min Rain = 0
KCH1 122047Z 34002KT 33/12 A2991 RMK A01 T03330122  RH  028%=      5-min Rain = 0
KCH1 122048Z 35002KT 33/12 A2991 RMK A01 T03330121  RH  028%=      5-min Rain = 0
KCH1 122049Z 34004KT 33/12 A2991 RMK A01 T03320118  RH  027%=      5-min Rain = 0
KCH1 122050Z 00003KT 33/11 A2991 RMK A01 T03280114  RH  027%=      5-min Rain = 0
KCH1 122051Z 34003KT 33/12 A2991 RMK A01 T03250118  RH  028%=      5-min Rain = 0
KCH1 122052Z 32002KT 33/12 A2991 RMK A01 T03250118  RH  028%=      5-min Rain = 0
KCH1 122053Z 31005KT 33/12 A299 RMK A01 T03270123  RH  029%=      5-min Rain = 0
KCH1 122054Z 31006KT 33/12 A299 RMK A01 T03310124  RH  029%=      5-min Rain = 0
KCH1 122055Z 30006KT 33/12 A299 RMK A01 T03340123  RH  028%=      5-min Rain = 0
KCH1 122056Z 30005KT 33/12 A299 RMK A01 T03330120  RH  027%=      5-min Rain = 0
KCH1 122057Z 29005KT 33/12 A299 RMK A01 T03300119  RH  028%=      5-min Rain = 0
KCH1 122058Z 31003KT 33/13 A299 RMK A01 T03300125  RH  029%=      5-min Rain = 0
KCH1 122059Z 35002KT 33/12 A299 RMK A01 T03320121  RH  028%=      5-min Rain = 0
KCH1 122100Z 02000KT 33/13 A299 RMK A01 T03330128  RH  029%=      5-min Rain = 0
KCH1 122101Z 02005KT 34/12 A299 RMK A01 T03350124  RH  028%=      5-min Rain = 0
KCH1 122102Z 01006KT 34/12 A299 RMK A01 T03360122  RH  027%=      5-min Rain = 0
KCH1 122103Z 01006KT 34/12 A299 RMK A01 T03360123  RH  027%=      5-min Rain = 0
KCH1 122104Z 01006KT 34/12 A299 RMK A01 T03350120  RH  027%=      5-min Rain = 0
KCH1 122105Z 03006KT 33/12 A299 RMK A01 T03330123  RH  028%=      5-min Rain = 0
KCH1 122106Z 01004G9KT 33/12 A299 RMK A01 T03320119  RH  027%=      5-min Rain = 0
KCH1 122107Z 02008KT 33/12 A299 RMK A01 T03320121  RH  028%=      5-min Rain = 0
KCH1 122108Z 01006KT 33/12 A299 RMK A01 T03310121  RH  028%=      5-min Rain = 0
KCH1 122109Z 02008KT 33/13 A299 RMK A01 T03320126  RH  029%=      5-min Rain = 0
KCH1 122110Z 02007KT 33/12 A299 RMK A01 T03340121  RH  027%=      5-min Rain = 0
KCH1 122111Z 02004KT 33/12 A299 RMK A01 T03330118  RH  027%=      5-min Rain = 0
KCH1 122112Z 04007KT 33/12 A299 RMK A01 T03310121  RH  028%=      5-min Rain = 0
KCH1 122113Z 04006KT 33/12 A299 RMK A01 T03320118  RH  027%=      5-min Rain = 0
KCH1 122114Z 03005KT 33/12 A299 RMK A01 T03310119  RH  027%=      5-min Rain = 0
KCH1 122115Z 33003KT 33/12 A2989 RMK A01 T03310115  RH  027%=      5-min Rain = 0
KCH1 122116Z 34001KT 33/11 A2989 RMK A01 T03290113  RH  027%=      5-min Rain = 0
KCH1 122117Z 07001KT 33/11 A2989 RMK A01 T03280113  RH  027%=      5-min Rain = 0
KCH1 122118Z 35002KT 33/12 A2989 RMK A01 T03290116  RH  027%=      5-min Rain = 0
KCH1 122119Z 00004KT 33/12 A2989 RMK A01 T03310123  RH  028%=      5-min Rain = 0
KCH1 122120Z 02004KT 33/12 A2989 RMK A01 T03340122  RH  028%=      5-min Rain = 0
KCH1 122121Z 05007KT 34/12 A2989 RMK A01 T03370119  RH  027%=      5-min Rain = 0
KCH1 122122Z 36009KT 34/12 A2989 RMK A01 T03360117  RH  026%=      5-min Rain = 0
KCH1 122123Z 35010KT 33/12 A2989 RMK A01 T03340116  RH  026%=      5-min Rain = 0
KCH1 122124Z 00007KT 33/12 A2989 RMK A01 T03330119  RH  027%=      5-min Rain = 0
KCH1 122125Z 02006KT 33/12 A2989 RMK A01 T03340123  RH  028%=      5-min Rain = 0
KCH1 122126Z 00006KT 34/12 A2989 RMK A01 T03360120  RH  027%=      5-min Rain = 0
KCH1 122127Z 01006KT 34/12 A2989 RMK A01 T03370124  RH  028%=      5-min Rain = 0
KCH1 122128Z 03007KT 34/12 A2989 RMK A01 T03370122  RH  027%=      5-min Rain = 0
KCH1 122129Z 03004KT 34/12 A2989 RMK A01 T03370123  RH  027%=      5-min Rain = 0
KCH1 122130Z 01006KT 34/12 A2989 RMK A01 T03370120  RH  027%=      5-min Rain = 0
KCH1 122131Z 01007KT 34/12 A2989 RMK A01 T03360117  RH  026%=      5-min Rain = 0
KCH1 122132Z 01007KT 33/12 A2989 RMK A01 T03340121  RH  027%=      5-min Rain = 0
KCH1 122133Z 00005KT 34/12 A2989 RMK A01 T03350121  RH  027%=      5-min Rain = 0
KCH1 122134Z 36007KT 34/12 A2989 RMK A01 T03350118  RH  027%=      5-min Rain = 0
KCH1 122135Z 34005KT 33/12 A2989 RMK A01 T03330116  RH  027%=      5-min Rain = 0
KCH1 122136Z 34004KT 33/12 A2989 RMK A01 T03320118  RH  027%=      5-min Rain = 0
KCH1 122137Z 01006KT 33/12 A2989 RMK A01 T03320118  RH  027%=      5-min Rain = 0
KCH1 122138Z 02004KT 33/12 A2989 RMK A01 T03330115  RH  027%=      5-min Rain = 0
KCH1 122139Z 32002G8KT 33/12 A2989 RMK A01 T03320117  RH  027%=      5-min Rain = 0
KCH1 122140Z 30010KT 33/12 A2988 RMK A01 T03320118  RH  027%=      5-min Rain = 0
KCH1 122141Z 01012G20KT 33/12 A2988 RMK A01 T03320120  RH  028%=      5-min Rain = 0
KCH1 122142Z 01009KT 33/12 A2989 RMK A01 T03320122  RH  028%=      5-min Rain = 0
KCH1 122143Z 01010KT 33/12 A2989 RMK A01 T03310122  RH  028%=      5-min Rain = 0
KCH1 122144Z 03006KT 33/12 A2989 RMK A01 T03310124  RH  028%=      5-min Rain = 0
KCH1 122145Z 04012KT 33/13 A2989 RMK A01 T03320125  RH  028%=      5-min Rain = 0
KCH1 122146Z 03005G10KT 33/12 A2989 RMK A01 T03340121  RH  027%=      5-min Rain = 0
KCH1 122147Z 06005KT 33/12 A2989 RMK A01 T03340120  RH  027%=      5-min Rain = 0
KCH1 122148Z 03003KT 33/12 A2989 RMK A01 T03330120  RH  027%=      5-min Rain = 0
KCH1 122149Z 05005G11KT 33/12 A2989 RMK A01 T03320121  RH  028%=      5-min Rain = 0
KCH1 122150Z 05007KT 33/12 A2989 RMK A01 T03320121  RH  028%=      5-min Rain = 0
KCH1 122151Z 06009KT 33/12 A2989 RMK A01 T03320120  RH  028%=      5-min Rain = 0
KCH1 122152Z 07006KT 33/12 A2989 RMK A01 T03310117  RH  027%=      5-min Rain = 0
KCH1 122153Z 07006KT 33/12 A2989 RMK A01 T03300120  RH  028%=      5-min Rain = 0
KCH1 122154Z 06006KT 33/12 A2989 RMK A01 T03300120  RH  028%=      5-min Rain = 0
KCH1 122155Z 01006KT 33/12 A2989 RMK A01 T03290120  RH  028%=      5-min Rain = 0
KCH1 122156Z 34005KT 33/12 A2989 RMK A01 T03310120  RH  028%=      5-min Rain = 0
KCH1 122157Z 33007KT 33/12 A2988 RMK A01 T03320116  RH  027%=      5-min Rain = 0
KCH1 122158Z 32006KT 33/12 A2988 RMK A01 T03320115  RH  027%=      5-min Rain = 0
KCH1 122159Z 35005KT 33/12 A2988 RMK A01 T03320116  RH  027%=      5-min Rain = 0
KCH1 122200Z 05003KT 33/12 A2988 RMK A01 T03320121  RH  028%=      5-min Rain = 0
KCH1 122201Z 05007KT 33/12 A2988 RMK A01 T03340121  RH  027%=      5-min Rain = 0
KCH1 122202Z 06005KT 33/12 A2988 RMK A01 T03340120  RH  027%=      5-min Rain = 0
KCH1 122203Z 06006KT 33/13 A2988 RMK A01 T03330125  RH  028%=      5-min Rain = 0
KCH1 122204Z 01004KT 33/12 A2988 RMK A01 T03340124  RH  028%=      5-min Rain = 0
KCH1 122205Z 36003KT 33/12 A2988 RMK A01 T03340120  RH  027%=      5-min Rain = 0
KCH1 122206Z 00003KT 33/12 A2988 RMK A01 T03310120  RH  028%=      5-min Rain = 0
KCH1 122207Z 01003KT 33/12 A2988 RMK A01 T03310122  RH  028%=      5-min Rain = 0
KCH1 122208Z 02004KT 33/12 A2988 RMK A01 T03300121  RH  028%=      5-min Rain = 0
KCH1 122209Z 00005KT 33/13 A2988 RMK A01 T03310125  RH  029%=      5-min Rain = 0
KCH1 122210Z 35009KT 33/12 A2988 RMK A01 T03320121  RH  028%=      5-min Rain = 0
KCH1 122211Z 34008KT 33/12 A2988 RMK A01 T03320119  RH  027%=      5-min Rain = 0
KCH1 122212Z 34008KT 33/12 A2988 RMK A01 T03320121  RH  028%=      5-min Rain = 0
KCH1 122213Z 34009KT 33/12 A2988 RMK A01 T03320117  RH  027%=      5-min Rain = 0
KCH1 122214Z 33008KT 33/12 A2988 RMK A01 T03300117  RH  027%=      5-min Rain = 0
KCH1 122215Z 32007KT 33/12 A2988 RMK A01 T03300118  RH  027%=      5-min Rain = 0
KCH1 122216Z 33006KT 33/12 A2988 RMK A01 T03290120  RH  028%=      5-min Rain = 0
KCH1 122217Z 34007KT 33/12 A2988 RMK A01 T03310119  RH  028%=      5-min Rain = 0
KCH1 122218Z 02004KT 33/12 A2988 RMK A01 T03310123  RH  028%=      5-min Rain = 0
KCH1 122219Z 04005KT 33/12 A2988 RMK A01 T03320123  RH  028%=      5-min Rain = 0
KCH1 122220Z 05007KT 33/13 A2988 RMK A01 T03330125  RH  028%=      5-min Rain = 0
KCH1 122221Z 06005KT 33/12 A2988 RMK A01 T03330121  RH  028%=      5-min Rain = 0
KCH1 122222Z 05004KT 33/12 A2988 RMK A01 T03310122  RH  028%=      5-min Rain = 0
KCH1 122223Z 06004KT 33/12 A2988 RMK A01 T03300119  RH  028%=      5-min Rain = 0
KCH1 122224Z 04008KT 33/12 A2988 RMK A01 T03290122  RH  028%=      5-min Rain = 0
KCH1 122225Z 00009KT 33/12 A2988 RMK A01 T03300120  RH  028%=      5-min Rain = 0
KCH1 122226Z 36008KT 33/12 A2988 RMK A01 T03300121  RH  028%=      5-min Rain = 0
KCH1 122227Z 00010KT 33/12 A2988 RMK A01 T03300117  RH  027%=      5-min Rain = 0
KCH1 122228Z 00008KT 33/12 A2988 RMK A01 T03280115  RH  027%=      5-min Rain = 0
KCH1 122229Z 34005KT 33/12 A2988 RMK A01 T03270115  RH  027%=      5-min Rain = 0
KCH1 122230Z 31005KT 33/12 A2988 RMK A01 T03280118  RH  028%=      5-min Rain = 0
KCH1 122231Z 34004KT 33/12 A2988 RMK A01 T03290117  RH  028%=      5-min Rain = 0
KCH1 122232Z 03005KT 33/12 A2988 RMK A01 T03290119  RH  028%=      5-min Rain = 0
KCH1 122233Z 04004KT 33/12 A2988 RMK A01 T03300119  RH  028%=      5-min Rain = 0
KCH1 122234Z 03005KT 33/12 A2988 RMK A01 T03300120  RH  028%=      5-min Rain = 0
KCH1 122235Z 04008KT 33/12 A2988 RMK A01 T03290119  RH  028%=      5-min Rain = 0
KCH1 122236Z 07007KT 33/12 A2988 RMK A01 T03280120  RH  028%=      5-min Rain = 0
KCH1 122237Z 05005KT 33/12 A2988 RMK A01 T03280122  RH  029%=      5-min Rain = 0
KCH1 122238Z 03004KT 33/13 A2988 RMK A01 T03280125  RH  029%=      5-min Rain = 0
KCH1 122239Z 03004KT 33/12 A2988 RMK A01 T03300123  RH  029%=      5-min Rain = 0
KCH1 122240Z 04005KT 33/12 A2988 RMK A01 T03300122  RH  028%=      5-min Rain = 0
KCH1 122241Z 03007KT 33/12 A2988 RMK A01 T03300121  RH  028%=      5-min Rain = 0
KCH1 122242Z 03006KT 33/12 A2987 RMK A01 T03290122  RH  028%=      5-min Rain = 0
KCH1 122243Z 04004KT 33/12 A2988 RMK A01 T03290119  RH  028%=      5-min Rain = 0
KCH1 122244Z 02002KT 33/12 A2987 RMK A01 T03280120  RH  028%=      5-min Rain = 0
KCH1 122245Z 02002KT 33/12 A2987 RMK A01 T03270117  RH  028%=      5-min Rain = 0
KCH1 122246Z 06004KT 33/12 A2987 RMK A01 T03270120  RH  028%=      5-min Rain = 0
KCH1 122247Z 06007KT 33/12 A2988 RMK A01 T03270121  RH  028%=      5-min Rain = 0
KCH1 122248Z 08006KT 33/12 A2988 RMK A01 T03270121  RH  028%=      5-min Rain = 0
KCH1 122249Z 06005KT 33/12 A2988 RMK A01 T03270119  RH  028%=      5-min Rain = 0
KCH1 122250Z 05003KT 33/12 A2988 RMK A01 T03250117  RH  028%=      5-min Rain = 0
KCH1 122251Z 03003KT 33/12 A2987 RMK A01 T03250118  RH  028%=      5-min Rain = 0
KCH1 122252Z 07005KT 32/12 A2987 RMK A01 T03240119  RH  029%=      5-min Rain = 0
KCH1 122253Z 07007KT 33/12 A2987 RMK A01 T03250118  RH  028%=      5-min Rain = 0
KCH1 122254Z 05005KT 33/12 A2987 RMK A01 T03250121  RH  029%=      5-min Rain = 0
KCH1 122255Z 06007KT 33/12 A2988 RMK A01 T03250119  RH  028%=      5-min Rain = 0
KCH1 122256Z 05004KT 33/12 A2987 RMK A01 T03250120  RH  029%=      5-min Rain = 0
KCH1 122257Z 04005KT 33/12 A2987 RMK A01 T03250121  RH  029%=      5-min Rain = 0
KCH1 122258Z 04004KT 33/12 A2987 RMK A01 T03250121  RH  029%=      5-min Rain = 0
KCH1 122259Z 05008KT 33/12 A2987 RMK A01 T03260122  RH  029%=      5-min Rain = 0
KCH1 122300Z 03005KT 33/12 A2987 RMK A01 T03260118  RH  028%=      5-min Rain = 0
KCH1 122301Z 03003KT 33/12 A2987 RMK A01 T03250118  RH  028%=      5-min Rain = 0
KCH1 122302Z 01005KT 32/12 A2987 RMK A01 T03240121  RH  029%=      5-min Rain = 0
KCH1 122303Z 01006KT 32/12 A2987 RMK A01 T03240120  RH  029%=      5-min Rain = 0
KCH1 122304Z 03006KT 33/12 A2987 RMK A01 T03250123  RH  029%=      5-min Rain = 0
KCH1 122305Z 04007KT 33/12 A2987 RMK A01 T03260122  RH  029%=      5-min Rain = 0
KCH1 122306Z 06010KT 33/12 A2987 RMK A01 T03260120  RH  028%=      5-min Rain = 0
KCH1 122307Z 05009KT 33/12 A2987 RMK A01 T03250118  RH  028%=      5-min Rain = 0
KCH1 122308Z 05008KT 32/12 A2987 RMK A01 T03230118  RH  029%=      5-min Rain = 0
KCH1 122309Z 06008KT 32/12 A2987 RMK A01 T03220118  RH  029%=      5-min Rain = 0
KCH1 122310Z 06008KT 32/12 A2987 RMK A01 T03220118  RH  029%=      5-min Rain = 0
KCH1 122311Z 06009KT 32/12 A2987 RMK A01 T03210119  RH  029%=      5-min Rain = 0
KCH1 122312Z 06010KT 32/12 A2987 RMK A01 T03210119  RH  029%=      5-min Rain = 0
KCH1 122313Z 05011KT 32/12 A2987 RMK A01 T03220117  RH  029%=      5-min Rain = 0
KCH1 122314Z 06008KT 32/12 A2987 RMK A01 T03210116  RH  028%=      5-min Rain = 0
KCH1 122315Z 06009KT 32/12 A2987 RMK A01 T03200118  RH  029%=      5-min Rain = 0
KCH1 122316Z 06006KT 32/12 A2987 RMK A01 T03200119  RH  029%=      5-min Rain = 0
KCH1 122317Z 07008KT 32/12 A2987 RMK A01 T03210121  RH  029%=      5-min Rain = 0
KCH1 122318Z 07009KT 32/12 A2987 RMK A01 T03210119  RH  029%=      5-min Rain = 0
KCH1 122319Z 08007KT 32/12 A2987 RMK A01 T03210118  RH  029%=      5-min Rain = 0
KCH1 122320Z 08006KT 32/12 A2987 RMK A01 T03210120  RH  029%=      5-min Rain = 0
KCH1 122321Z 07008KT 32/12 A2987 RMK A01 T03210120  RH  029%=      5-min Rain = 0
KCH1 122322Z 07010KT 32/12 A2987 RMK A01 T03210119  RH  029%=      5-min Rain = 0
KCH1 122323Z 06009KT 32/12 A2987 RMK A01 T03210117  RH  029%=      5-min Rain = 0
KCH1 122324Z 05005KT 32/12 A2987 RMK A01 T03200121  RH  030%=      5-min Rain = 0
KCH1 122325Z 05007KT 32/12 A2987 RMK A01 T03200123  RH  030%=      5-min Rain = 0
KCH1 122326Z 05008KT 32/12 A2987 RMK A01 T03200119  RH  029%=      5-min Rain = 0
KCH1 122327Z 05008KT 32/12 A2987 RMK A01 T03200119  RH  029%=      5-min Rain = 0
KCH1 122328Z 04008KT 32/12 A2987 RMK A01 T03190118  RH  029%=      5-min Rain = 0
KCH1 122329Z 04006KT 32/12 A2987 RMK A01 T03180118  RH  029%=      5-min Rain = 0
KCH1 122330Z 03006KT 32/12 A2987 RMK A01 T03180119  RH  030%=      5-min Rain = 0
KCH1 122331Z 04008KT 32/12 A2987 RMK A01 T03180115  RH  029%=      5-min Rain = 0
KCH1 122332Z 03007KT 32/12 A2987 RMK A01 T03180116  RH  029%=      5-min Rain = 0
KCH1 122333Z 04007KT 32/12 A2987 RMK A01 T03170117  RH  029%=      5-min Rain = 0
KCH1 122334Z 04009KT 32/12 A2987 RMK A01 T03170117  RH  029%=      5-min Rain = 0
KCH1 122335Z 03007KT 32/12 A2987 RMK A01 T03170116  RH  029%=      5-min Rain = 0
KCH1 122336Z 05008KT 32/12 A2987 RMK A01 T03170117  RH  029%=      5-min Rain = 0
KCH1 122337Z 05008KT 32/12 A2987 RMK A01 T03160116  RH  029%=      5-min Rain = 0
KCH1 122338Z 05007KT 32/12 A2987 RMK A01 T03160115  RH  029%=      5-min Rain = 0
KCH1 122339Z 06008KT 32/12 A2987 RMK A01 T03160116  RH  029%=      5-min Rain = 0
KCH1 122340Z 05008KT 32/12 A2987 RMK A01 T03150115  RH  029%=      5-min Rain = 0
KCH1 122341Z 06007KT 32/12 A2987 RMK A01 T03150116  RH  030%=      5-min Rain = 0
KCH1 122342Z 06008KT 32/12 A2987 RMK A01 T03150117  RH  030%=      5-min Rain = 0
KCH1 122343Z 05008KT 32/12 A2987 RMK A01 T03150115  RH  029%=      5-min Rain = 0
KCH1 122344Z 05006KT 31/11 A2987 RMK A01 T03140113  RH  029%=      5-min Rain = 0
KCH1 122345Z 06005KT 31/11 A2987 RMK A01 T03140114  RH  029%=      5-min Rain = 0
KCH1 122346Z 07007KT 31/12 A2987 RMK A01 T03140116  RH  030%=      5-min Rain = 0
KCH1 122347Z 08008KT 31/11 A2987 RMK A01 T03140114  RH  029%=      5-min Rain = 0
KCH1 122348Z 07008KT 31/11 A2987 RMK A01 T03140114  RH  029%=      5-min Rain = 0
KCH1 122349Z 06008KT 31/11 A2987 RMK A01 T03140114  RH  029%=      5-min Rain = 0
KCH1 122350Z 06007KT 31/11 A2987 RMK A01 T03140114  RH  029%=      5-min Rain = 0
KCH1 122351Z 06005KT 31/12 A2987 RMK A01 T03130116  RH  030%=      5-min Rain = 0
KCH1 122352Z 06007KT 31/12 A2987 RMK A01 T03130117  RH  030%=      5-min Rain = 0
KCH1 122353Z 06006KT 31/12 A2987 RMK A01 T03120116  RH  030%=      5-min Rain = 0
KCH1 122354Z 07007KT 31/12 A2987 RMK A01 T03120116  RH  030%=      5-min Rain = 0
KCH1 122355Z 07008KT 31/12 A2987 RMK A01 T03120115  RH  030%=      5-min Rain = 0
KCH1 122356Z 08007KT 31/12 A2987 RMK A01 T03110115  RH  030%=      5-min Rain = 0
KCH1 122357Z 07007KT 31/12 A2987 RMK A01 T03110115  RH  030%=      5-min Rain = 0
KCH1 122358Z 07007KT 31/12 A2987 RMK A01 T03110116  RH  030%=      5-min Rain = 0
KCH1 122359Z 08006KT 31/12 A2987 RMK A01 T03110115  RH  030%=      5-min Rain = 0
KCH1 130000Z 07006KT 31/12 A2987 RMK A01 T03110117  RH  030%=      5-min Rain = 0
KCH1 130001Z 07007KT 31/12 A2987 RMK A01 T03100117  RH  030%=      5-min Rain = 0
KCH1 130002Z 06007KT 31/12 A2987 RMK A01 T03100117  RH  031%=      5-min Rain = 0
KCH1 130003Z 05007KT 31/12 A2987 RMK A01 T03090116  RH  031%=      5-min Rain = 0
KCH1 130004Z 06006KT 31/12 A2986 RMK A01 T03090117  RH  031%=      5-min Rain = 0
KCH1 130005Z 06007KT 31/12 A2986 RMK A01 T03090117  RH  031%=      5-min Rain = 0
KCH1 130006Z 06006KT 31/12 A2986 RMK A01 T03080118  RH  031%=      5-min Rain = 0
KCH1 130007Z 05007KT 31/12 A2986 RMK A01 T03080118  RH  031%=      5-min Rain = 0
KCH1 130008Z 06007KT 31/12 A2986 RMK A01 T03070116  RH  031%=      5-min Rain = 0
KCH1 130009Z 05006KT 31/12 A2986 RMK A01 T03070118  RH  031%=      5-min Rain = 0
KCH1 130010Z 06006KT 31/12 A2986 RMK A01 T03070118  RH  031%=      5-min Rain = 0
KCH1 130011Z 06006KT 31/12 A2986 RMK A01 T03070119  RH  032%=      5-min Rain = 0
KCH1 130012Z 06006KT 31/12 A2986 RMK A01 T03050118  RH  032%=      5-min Rain = 0
KCH1 130013Z 06006KT 31/12 A2986 RMK A01 T03050117  RH  032%=      5-min Rain = 0
KCH1 130014Z 06006KT 30/12 A2986 RMK A01 T03040117  RH  032%=      5-min Rain = 0
KCH1 130015Z 06005KT 30/12 A2986 RMK A01 T03040116  RH  031%=      5-min Rain = 0
KCH1 130016Z 06005KT 30/12 A2986 RMK A01 T03040117  RH  032%=      5-min Rain = 0
KCH1 130017Z 06005KT 30/12 A2986 RMK A01 T03040118  RH  032%=      5-min Rain = 0
KCH1 130018Z 06006KT 30/12 A2986 RMK A01 T03020119  RH  032%=      5-min Rain = 0
KCH1 130019Z 06005KT 30/12 A2986 RMK A01 T03010118  RH  032%=      5-min Rain = 0
KCH1 130020Z 07005KT 30/12 A2986 RMK A01 T03000118  RH  032%=      5-min Rain = 0
KCH1 130021Z 07005KT 30/12 A2986 RMK A01 T02990119  RH  033%=      5-min Rain = 0
KCH1 130022Z 07005KT 30/12 A2986 RMK A01 T02980119  RH  033%=      5-min Rain = 0
KCH1 130023Z 07006KT 30/12 A2986 RMK A01 T02970119  RH  033%=      5-min Rain = 0
KCH1 130024Z 07006KT 30/12 A2986 RMK A01 T02970116  RH  033%=      5-min Rain = 0
KCH1 130025Z 07005KT 30/12 A2986 RMK A01 T02970118  RH  033%=      5-min Rain = 0
KCH1 130026Z 07006KT 30/12 A2986 RMK A01 T02970118  RH  033%=      5-min Rain = 0
KCH1 130027Z 06006KT 30/12 A2986 RMK A01 T02950118  RH  033%=      5-min Rain = 0
KCH1 130028Z 07006KT 29/12 A2986 RMK A01 T02940117  RH  034%=      5-min Rain = 0
KCH1 130029Z 07005KT 29/12 A2986 RMK A01 T02930117  RH  034%=      5-min Rain = 0
KCH1 130030Z 07005KT 29/12 A2986 RMK A01 T02920118  RH  034%=      5-min Rain = 0
KCH1 130031Z 07005KT 29/12 A2986 RMK A01 T02910118  RH  034%=      5-min Rain = 0
KCH1 130032Z 07005KT 29/12 A2986 RMK A01 T02900118  RH  035%=      5-min Rain = 0
KCH1 130033Z 07005KT 29/12 A2986 RMK A01 T02890118  RH  035%=      5-min Rain = 0
KCH1 130034Z 07005KT 29/12 A2986 RMK A01 T02880118  RH  035%=      5-min Rain = 0
KCH1 130035Z 07005KT 29/12 A2986 RMK A01 T02880118  RH  035%=      5-min Rain = 0
KCH1 130036Z 07005KT 29/12 A2986 RMK A01 T02870118  RH  035%=      5-min Rain = 0
KCH1 130037Z 07005KT 29/12 A2986 RMK A01 T02870118  RH  035%=      5-min Rain = 0
KCH1 130038Z 07004KT 29/12 A2986 RMK A01 T02860118  RH  035%=      5-min Rain = 0
KCH1 130039Z 07004KT 29/12 A2986 RMK A01 T02860118  RH  035%=      5-min Rain = 0
KCH1 130040Z 07005KT 29/12 A2986 RMK A01 T02850118  RH  035%=      5-min Rain = 0
KCH1 130041Z 07005KT 29/12 A2986 RMK A01 T02850118  RH  036%=      5-min Rain = 0
KCH1 130042Z 07004KT 29/12 A2986 RMK A01 T02850117  RH  035%=      5-min Rain = 0
KCH1 130043Z 07005KT 29/12 A2986 RMK A01 T02850117  RH  035%=      5-min Rain = 0
KCH1 130044Z 07005KT 29/12 A2986 RMK A01 T02850118  RH  036%=      5-min Rain = 0
KCH1 130045Z 07004KT 28/12 A2986 RMK A01 T02840118  RH  036%=      5-min Rain = 0
KCH1 130046Z 07005KT 28/12 A2986 RMK A01 T02830118  RH  036%=      5-min Rain = 0
KCH1 130047Z 07004KT 28/12 A2986 RMK A01 T02820118  RH  036%=      5-min Rain = 0
KCH1 130048Z 07005KT 28/12 A2986 RMK A01 T02820118  RH  036%=      5-min Rain = 0
KCH1 130049Z 07005KT 28/12 A2986 RMK A01 T02810118  RH  036%=      5-min Rain = 0
KCH1 130050Z 08005KT 28/12 A2986 RMK A01 T02810118  RH  037%=      5-min Rain = 0
KCH1 130051Z 08005KT 28/12 A2986 RMK A01 T02800118  RH  037%=      5-min Rain = 0
KCH1 130052Z 08005KT 28/12 A2986 RMK A01 T02790118  RH  037%=      5-min Rain = 0
KCH1 130053Z 08005KT 28/12 A2986 RMK A01 T02790118  RH  037%=      5-min Rain = 0
KCH1 130054Z 08005KT 28/12 A2986 RMK A01 T02780118  RH  037%=      5-min Rain = 0
KCH1 130055Z 07005KT 28/12 A2986 RMK A01 T02770118  RH  037%=      5-min Rain = 0
KCH1 130056Z 07005KT 28/12 A2986 RMK A01 T02770118  RH  037%=      5-min Rain = 0
KCH1 130057Z 07005KT 28/12 A2986 RMK A01 T02770118  RH  037%=      5-min Rain = 0
KCH1 130058Z 07005KT 28/12 A2986 RMK A01 T02770118  RH  037%=      5-min Rain = 0
KCH1 130059Z 08005KT 28/12 A2986 RMK A01 T02760119  RH  038%=      5-min Rain = 0
KCH1 130100Z 08005KT 28/12 A2986 RMK A01 T02750119  RH  038%=      5-min Rain = 0
KCH1 130101Z 09005KT 27/12 A2986 RMK A01 T02740120  RH  039%=      5-min Rain = 0
KCH1 130102Z 08005KT 27/12 A2986 RMK A01 T02720122  RH  039%=      5-min Rain = 0
KCH1 130103Z 08006KT 27/12 A2986 RMK A01 T02700121  RH  040%=      5-min Rain = 0
KCH1 130104Z 08006KT 27/12 A2986 RMK A01 T02690119  RH  039%=      5-min Rain = 0
KCH1 130105Z 08006KT 27/12 A2986 RMK A01 T02690118  RH  039%=      5-min Rain = 0
KCH1 130106Z 08005KT 27/12 A2986 RMK A01 T02700118  RH  039%=      5-min Rain = 0
KCH1 130107Z 09005KT 27/12 A2986 RMK A01 T02700119  RH  039%=      5-min Rain = 0
KCH1 130108Z 08006KT 27/12 A2986 RMK A01 T02700119  RH  039%=      5-min Rain = 0
KCH1 130109Z 08006KT 27/12 A2986 RMK A01 T02690118  RH  039%=      5-min Rain = 0
KCH1 130110Z 08006KT 27/12 A2986 RMK A01 T02690118  RH  039%=      5-min Rain = 0
KCH1 130111Z 08006KT 27/12 A2986 RMK A01 T02690118  RH  039%=      5-min Rain = 0
KCH1 130112Z 08006KT 27/12 A2986 RMK A01 T02690118  RH  039%=      5-min Rain = 0
KCH1 130113Z 08006KT 27/12 A2986 RMK A01 T02690118  RH  039%=      5-min Rain = 0
KCH1 130114Z 08006KT 27/12 A2986 RMK A01 T02680118  RH  039%=      5-min Rain = 0
KCH1 130115Z 09006KT 27/12 A2986 RMK A01 T02680117  RH  039%=      5-min Rain = 0
KCH1 130116Z 08006KT 27/12 A2986 RMK A01 T02680117  RH  039%=      5-min Rain = 0
KCH1 130117Z 08006KT 27/12 A2986 RMK A01 T02670118  RH  039%=      5-min Rain = 0
KCH1 130118Z 08006KT 27/12 A2986 RMK A01 T02660117  RH  039%=      5-min Rain = 0
KCH1 130119Z 08006KT 27/12 A2986 RMK A01 T02660117  RH  039%=      5-min Rain = 0
KCH1 130120Z 08006KT 27/12 A2986 RMK A01 T02660116  RH  039%=      5-min Rain = 0
KCH1 130121Z 08006KT 27/12 A2986 RMK A01 T02660116  RH  039%=      5-min Rain = 0
KCH1 130122Z 08006KT 27/12 A2986 RMK A01 T02660115  RH  039%=      5-min Rain = 0
KCH1 130123Z 08006KT 27/12 A2986 RMK A01 T02660116  RH  039%=      5-min Rain = 0
KCH1 130124Z 08006KT 27/12 A2986 RMK A01 T02660116  RH  039%=      5-min Rain = 0
KCH1 130125Z 08005KT 27/12 A2986 RMK A01 T02650116  RH  039%=      5-min Rain = 0
KCH1 130126Z 08005KT 27/12 A2986 RMK A01 T02650116  RH  039%=      5-min Rain = 0
KCH1 130127Z 08005KT 26/12 A2986 RMK A01 T02640116  RH  040%=      5-min Rain = 0
KCH1 130128Z 08005KT 26/12 A2986 RMK A01 T02640116  RH  040%=      5-min Rain = 0
KCH1 130129Z 09004KT 26/12 A2986 RMK A01 T02630115  RH  040%=      5-min Rain = 0
KCH1 130130Z 09004KT 26/12 A2986 RMK A01 T02630115  RH  039%=      5-min Rain = 0
KCH1 130131Z 09004KT 26/12 A2986 RMK A01 T02640115  RH  039%=      5-min Rain = 0
KCH1 130132Z 09004KT 27/12 A2986 RMK A01 T02650115  RH  039%=      5-min Rain = 0
KCH1 130133Z 09004KT 27/12 A2986 RMK A01 T02650115  RH  039%=      5-min Rain = 0
KCH1 130134Z 09004KT 27/12 A2986 RMK A01 T02650115  RH  039%=      5-min Rain = 0
KCH1 130135Z 09004KT 27/12 A2986 RMK A01 T02650115  RH  039%=      5-min Rain = 0
KCH1 130136Z 09004KT 27/12 A2986 RMK A01 T02650115  RH  039%=      5-min Rain = 0
KCH1 130137Z 09004KT 27/12 A2986 RMK A01 T02650115  RH  039%=      5-min Rain = 0
KCH1 130138Z 09004KT 27/11 A2986 RMK A01 T02650114  RH  039%=      5-min Rain = 0
KCH1 130139Z 09004KT 27/12 A2986 RMK A01 T02650115  RH  039%=      5-min Rain = 0
KCH1 130140Z 09004KT 27/12 A2986 RMK A01 T02650115  RH  039%=      5-min Rain = 0
KCH1 130141Z 09004KT 26/12 A2986 RMK A01 T02640115  RH  039%=      5-min Rain = 0
KCH1 130142Z 09003KT 26/12 A2986 RMK A01 T02640115  RH  039%=      5-min Rain = 0
KCH1 130143Z 09003KT 26/12 A2986 RMK A01 T02640115  RH  040%=      5-min Rain = 0
KCH1 130144Z 09003KT 26/12 A2987 RMK A01 T02630115  RH  040%=      5-min Rain = 0
KCH1 130145Z 08003KT 26/12 A2987 RMK A01 T02620115  RH  040%=      5-min Rain = 0
KCH1 130146Z 09004KT 26/12 A2987 RMK A01 T02610115  RH  040%=      5-min Rain = 0
KCH1 130147Z 08003KT 26/12 A2987 RMK A01 T02600115  RH  040%=      5-min Rain = 0
KCH1 130148Z 08003KT 26/12 A2987 RMK A01 T02590116  RH  041%=      5-min Rain = 0
KCH1 130149Z 08003KT 26/12 A2987 RMK A01 T02580115  RH  041%=      5-min Rain = 0
KCH1 130150Z 08003KT 26/12 A2987 RMK A01 T02580115  RH  041%=      5-min Rain = 0
KCH1 130151Z 08003KT 26/12 A2987 RMK A01 T02570115  RH  041%=      5-min Rain = 0
KCH1 130152Z 08003KT 26/12 A2987 RMK A01 T02570115  RH  041%=      5-min Rain = 0
KCH1 130153Z 07003KT 26/12 A2987 RMK A01 T02570115  RH  041%=      5-min Rain = 0
KCH1 130154Z 08003KT 26/12 A2987 RMK A01 T02560115  RH  041%=      5-min Rain = 0
KCH1 130155Z 08003KT 26/12 A2987 RMK A01 T02560115  RH  041%=      5-min Rain = 0
KCH1 130156Z 08003KT 26/12 A2987 RMK A01 T02560115  RH  041%=      5-min Rain = 0
KCH1 130157Z 08003KT 26/11 A2987 RMK A01 T02560114  RH  041%=      5-min Rain = 0
KCH1 130158Z 08003KT 26/11 A2987 RMK A01 T02570114  RH  041%=      5-min Rain = 0
KCH1 130159Z 07003KT 26/11 A2987 RMK A01 T02570114  RH  041%=      5-min Rain = 0
KCH1 130200Z 08003KT 26/11 A2987 RMK A01 T02570114  RH  041%=      5-min Rain = 0
KCH1 130201Z 07003KT 26/11 A2987 RMK A01 T02570113  RH  041%=      5-min Rain = 0
KCH1 130202Z 07004KT 26/11 A2987 RMK A01 T02570114  RH  041%=      5-min Rain = 0
KCH1 130203Z 07004KT 26/11 A2987 RMK A01 T02570114  RH  041%=      5-min Rain = 0
KCH1 130204Z 07004KT 26/11 A2987 RMK A01 T02570114  RH  041%=      5-min Rain = 0
KCH1 130205Z 07004KT 26/11 A2987 RMK A01 T02560114  RH  041%=      5-min Rain = 0
KCH1 130206Z 07004KT 26/12 A2987 RMK A01 T02550115  RH  042%=      5-min Rain = 0
KCH1 130207Z 07004KT 25/12 A2987 RMK A01 T02540116  RH  042%=      5-min Rain = 0
KCH1 130208Z 07004KT 25/12 A2987 RMK A01 T02530117  RH  042%=      5-min Rain = 0
KCH1 130209Z 07004KT 25/12 A2988 RMK A01 T02510117  RH  043%=      5-min Rain = 0
KCH1 130210Z 07004KT 25/12 A2988 RMK A01 T02500117  RH  043%=      5-min Rain = 0
KCH1 130211Z 07003KT 25/12 A2988 RMK A01 T02490117  RH  044%=      5-min Rain = 0
KCH1 130212Z 07003KT 25/12 A2988 RMK A01 T02470117  RH  044%=      5-min Rain = 0
KCH1 130213Z 08003KT 25/12 A2988 RMK A01 T02460117  RH  044%=      5-min Rain = 0
KCH1 130214Z 08003KT 25/12 A2988 RMK A01 T02460117  RH  045%=      5-min Rain = 0
KCH1 130215Z 08003KT 25/12 A2988 RMK A01 T02450117  RH  045%=      5-min Rain = 0
KCH1 130216Z 08003KT 25/12 A2988 RMK A01 T02450117  RH  045%=      5-min Rain = 0
KCH1 130217Z 09003KT 25/12 A2988 RMK A01 T02450117  RH  045%=      5-min Rain = 0
KCH1 130218Z 09003KT 25/12 A2988 RMK A01 T02450116  RH  045%=      5-min Rain = 0
KCH1 130219Z 09003KT 25/12 A2988 RMK A01 T02450115  RH  044%=      5-min Rain = 0
KCH1 130220Z 09003KT 25/11 A2988 RMK A01 T02460114  RH  044%=      5-min Rain = 0
KCH1 130221Z 08003KT 25/11 A2988 RMK A01 T02460114  RH  043%=      5-min Rain = 0
KCH1 130222Z 08003KT 25/11 A2988 RMK A01 T02470114  RH  043%=      5-min Rain = 0
KCH1 130223Z 08003KT 25/11 A2988 RMK A01 T02470113  RH  043%=      5-min Rain = 0
KCH1 130224Z 08003KT 25/11 A2988 RMK A01 T02470114  RH  043%=      5-min Rain = 0
KCH1 130225Z 07003KT 25/12 A2988 RMK A01 T02470115  RH  044%=      5-min Rain = 0
KCH1 130226Z 07003KT 25/12 A2988 RMK A01 T02470116  RH  044%=      5-min Rain = 0
KCH1 130227Z 07003KT 25/12 A2988 RMK A01 T02460116  RH  044%=      5-min Rain = 0
KCH1 130228Z 07003KT 25/12 A2988 RMK A01 T02450117  RH  045%=      5-min Rain = 0
KCH1 130229Z 06003KT 24/12 A2988 RMK A01 T02440116  RH  045%=      5-min Rain = 0
KCH1 130230Z 06004KT 24/12 A2988 RMK A01 T02430117  RH  045%=      5-min Rain = 0
KCH1 130231Z 06004KT 24/12 A2988 RMK A01 T02420117  RH  045%=      5-min Rain = 0
KCH1 130232Z 06004KT 24/12 A2988 RMK A01 T02410117  RH  046%=      5-min Rain = 0
KCH1 130233Z 05004KT 24/12 A2988 RMK A01 T02400117  RH  046%=      5-min Rain = 0
KCH1 130234Z 05004KT 24/12 A2988 RMK A01 T02390117  RH  046%=      5-min Rain = 0
KCH1 130235Z 05004KT 24/12 A2988 RMK A01 T02380117  RH  047%=      5-min Rain = 0
KCH1 130236Z 05004KT 24/12 A2988 RMK A01 T02370118  RH  047%=      5-min Rain = 0
KCH1 130237Z 06005KT 24/12 A2988 RMK A01 T02360118  RH  047%=      5-min Rain = 0
KCH1 130238Z 06005KT 24/12 A2988 RMK A01 T02350118  RH  048%=      5-min Rain = 0
KCH1 130239Z 06005KT 24/12 A2988 RMK A01 T02350117  RH  047%=      5-min Rain = 0
KCH1 130240Z 06005KT 24/12 A2988 RMK A01 T02350117  RH  048%=      5-min Rain = 0
KCH1 130241Z 06005KT 23/12 A2988 RMK A01 T02340117  RH  048%=      5-min Rain = 0
KCH1 130242Z 06005KT 23/12 A2988 RMK A01 T02340117  RH  048%=      5-min Rain = 0
KCH1 130243Z 06005KT 23/12 A2988 RMK A01 T02340117  RH  048%=      5-min Rain = 0
KCH1 130244Z 06005KT 23/12 A2988 RMK A01 T02340117  RH  048%=      5-min Rain = 0
KCH1 130245Z 05005KT 23/12 A2988 RMK A01 T02340117  RH  048%=      5-min Rain = 0
KCH1 130246Z 05005KT 23/12 A2988 RMK A01 T02330116  RH  048%=      5-min Rain = 0
KCH1 130247Z 05005KT 23/12 A2988 RMK A01 T02330117  RH  048%=      5-min Rain = 0
KCH1 130248Z 06005KT 23/12 A2988 RMK A01 T02330117  RH  048%=      5-min Rain = 0
KCH1 130249Z 06005KT 23/12 A2988 RMK A01 T02320117  RH  048%=      5-min Rain = 0
KCH1 130250Z 06005KT 23/12 A2988 RMK A01 T02310117  RH  049%=      5-min Rain = 0
KCH1 130251Z 06004KT 23/12 A2988 RMK A01 T02300117  RH  049%=      5-min Rain = 0
KCH1 130252Z 06004KT 23/12 A2988 RMK A01 T02300117  RH  049%=      5-min Rain = 0
KCH1 130253Z 05004KT 23/12 A2988 RMK A01 T02300117  RH  049%=      5-min Rain = 0
KCH1 130254Z 06004KT 23/12 A2988 RMK A01 T02300117  RH  049%=      5-min Rain = 0
KCH1 130255Z 06004KT 23/12 A2988 RMK A01 T02300116  RH  049%=      5-min Rain = 0
KCH1 130256Z 06004KT 23/12 A2988 RMK A01 T02300116  RH  049%=      5-min Rain = 0
KCH1 130257Z 06004KT 23/12 A2988 RMK A01 T02300116  RH  049%=      5-min Rain = 0
KCH1 130258Z 06004KT 23/12 A2988 RMK A01 T02300116  RH  048%=      5-min Rain = 0
KCH1 130259Z 06004KT 23/12 A2988 RMK A01 T02300116  RH  048%=      5-min Rain = 0
KCH1 130300Z 06004KT 23/12 A2988 RMK A01 T02300115  RH  048%=      5-min Rain = 0
KCH1 130301Z 05004KT 23/12 A2988 RMK A01 T02310115  RH  048%=      5-min Rain = 0
KCH1 130302Z 05004KT 23/12 A2988 RMK A01 T02310115  RH  048%=      5-min Rain = 0
KCH1 130303Z 05003KT 23/12 A2988 RMK A01 T02310115  RH  048%=      5-min Rain = 0
KCH1 130304Z 06003KT 23/12 A2988 RMK A01 T02310115  RH  048%=      5-min Rain = 0
KCH1 130305Z 06003KT 23/11 A2988 RMK A01 T02310114  RH  048%=      5-min Rain = 0
KCH1 130306Z 05003KT 23/11 A2988 RMK A01 T02320114  RH  047%=      5-min Rain = 0
KCH1 130307Z 05003KT 23/11 A2988 RMK A01 T02320114  RH  047%=      5-min Rain = 0
KCH1 130308Z 05003KT 23/12 A2988 RMK A01 T02320115  RH  047%=      5-min Rain = 0
KCH1 130309Z 05003KT 23/12 A2988 RMK A01 T02320115  RH  047%=      5-min Rain = 0
KCH1 130310Z 05003KT 23/12 A2988 RMK A01 T02320115  RH  048%=      5-min Rain = 0
KCH1 130311Z 06003KT 23/12 A2988 RMK A01 T02320115  RH  048%=      5-min Rain = 0
KCH1 130312Z 05002KT 23/11 A2988 RMK A01 T02310114  RH  048%=      5-min Rain = 0
KCH1 130313Z 05002KT 23/11 A2988 RMK A01 T02310114  RH  047%=      5-min Rain = 0
KCH1 130314Z 05002KT 23/11 A2988 RMK A01 T02310113  RH  047%=      5-min Rain = 0
KCH1 130315Z 04002KT 23/11 A2988 RMK A01 T02310113  RH  047%=      5-min Rain = 0
KCH1 130316Z 04003KT 23/11 A2988 RMK A01 T02320113  RH  047%=      5-min Rain = 0
KCH1 130317Z 04003KT 23/11 A2988 RMK A01 T02320113  RH  047%=      5-min Rain = 0
KCH1 130318Z 04002KT 23/11 A2988 RMK A01 T02320113  RH  047%=      5-min Rain = 0
KCH1 130319Z 04002KT 23/11 A2988 RMK A01 T02320113  RH  047%=      5-min Rain = 0
KCH1 130320Z 04002KT 23/11 A2988 RMK A01 T02320114  RH  048%=      5-min Rain = 0
KCH1 130321Z 04002KT 23/12 A2988 RMK A01 T02310115  RH  048%=      5-min Rain = 0
KCH1 130322Z 05002KT 23/12 A2988 RMK A01 T02300115  RH  048%=      5-min Rain = 0
KCH1 130323Z 05002KT 23/12 A2988 RMK A01 T02290115  RH  048%=      5-min Rain = 0
KCH1 130324Z 06001KT 23/12 A2988 RMK A01 T02290115  RH  048%=      5-min Rain = 0
KCH1 130325Z 06000KT 23/12 A2988 RMK A01 T02280119  RH  050%=      5-min Rain = 0
KCH1 130326Z 05000KT 23/12 A2988 RMK A01 T02270117  RH  050%=      5-min Rain = 0
KCH1 130327Z 00000KT 23/12 A2988 RMK A01 T02260115  RH  050%=      5-min Rain = 0
KCH1 130328Z 06000KT 23/12 A2989 RMK A01 T02250115  RH  050%=      5-min Rain = 0
KCH1 130329Z 00000KT 23/12 A2989 RMK A01 T02250115  RH  050%=      5-min Rain = 0
KCH1 130330Z 00000KT 23/12 A2989 RMK A01 T02250116  RH  050%=      5-min Rain = 0
KCH1 130331Z 06000KT 23/11 A2989 RMK A01 T02250114  RH  049%=      5-min Rain = 0
KCH1 130332Z 06001KT 23/12 A2989 RMK A01 T02260116  RH  050%=      5-min Rain = 0
KCH1 130333Z 05001KT 23/12 A2989 RMK A01 T02250116  RH  050%=      5-min Rain = 0
KCH1 130334Z 03001KT 23/12 A2989 RMK A01 T02260116  RH  050%=      5-min Rain = 0
KCH1 130335Z 04001KT 23/12 A2989 RMK A01 T02260117  RH  050%=      5-min Rain = 0
KCH1 130336Z 05002KT 23/11 A2989 RMK A01 T02250114  RH  049%=      5-min Rain = 0
KCH1 130337Z 05002KT 23/12 A2989 RMK A01 T02260115  RH  050%=      5-min Rain = 0
KCH1 130338Z 06002KT 23/12 A2989 RMK A01 T02260115  RH  049%=      5-min Rain = 0
KCH1 130339Z 06002KT 23/12 A2989 RMK A01 T02270115  RH  049%=      5-min Rain = 0
KCH1 130340Z 06002KT 23/11 A2989 RMK A01 T02280113  RH  048%=      5-min Rain = 0
KCH1 130341Z 06002KT 23/11 A2989 RMK A01 T02290113  RH  048%=      5-min Rain = 0
KCH1 130342Z 06002KT 23/11 A2989 RMK A01 T02290112  RH  048%=      5-min Rain = 0
KCH1 130343Z 06002KT 23/11 A2989 RMK A01 T02290113  RH  048%=      5-min Rain = 0
KCH1 130344Z 06002KT 23/11 A2989 RMK A01 T02290112  RH  048%=      5-min Rain = 0
KCH1 130345Z 06002KT 23/11 A2989 RMK A01 T02290112  RH  048%=      5-min Rain = 0
KCH1 130346Z 06002KT 23/11 A2989 RMK A01 T02290112  RH  048%=      5-min Rain = 0
KCH1 130347Z 06002KT 23/11 A2989 RMK A01 T02290112  RH  047%=      5-min Rain = 0
KCH1 130348Z 06002KT 23/11 A2989 RMK A01 T02290112  RH  048%=      5-min Rain = 0
KCH1 130349Z 06001KT 23/11 A2989 RMK A01 T02290112  RH  048%=      5-min Rain = 0
KCH1 130350Z 06001KT 23/11 A2989 RMK A01 T02280112  RH  048%=      5-min Rain = 0
KCH1 130351Z 05001KT 23/11 A2989 RMK A01 T02280113  RH  048%=      5-min Rain = 0
KCH1 130352Z 06002KT 23/11 A2989 RMK A01 T02270114  RH  049%=      5-min Rain = 0
KCH1 130353Z 07001KT 23/11 A2989 RMK A01 T02260114  RH  049%=      5-min Rain = 0
KCH1 130354Z 07001KT 23/11 A2989 RMK A01 T02250113  RH  049%=      5-min Rain = 0
KCH1 130355Z 07002KT 23/11 A2989 RMK A01 T02250112  RH  049%=      5-min Rain = 0
KCH1 130356Z 07003KT 23/11 A2989 RMK A01 T02250112  RH  049%=      5-min Rain = 0
KCH1 130357Z 07003KT 23/11 A2989 RMK A01 T02250111  RH  048%=      5-min Rain = 0
KCH1 130358Z 06003KT 23/11 A2989 RMK A01 T02260111  RH  048%=      5-min Rain = 0
KCH1 130359Z 06002KT 23/11 A2989 RMK A01 T02260110  RH  048%=      5-min Rain = 0
KCH1 130400Z 06002KT 23/11 A2989 RMK A01 T02260111  RH  048%=      5-min Rain = 0
KCH1 130401Z 06002KT 23/11 A2989 RMK A01 T02270111  RH  048%=      5-min Rain = 0
KCH1 130402Z 06002KT 23/11 A2989 RMK A01 T02270111  RH  048%=      5-min Rain = 0
KCH1 130403Z 06002KT 23/11 A2989 RMK A01 T02270110  RH  048%=      5-min Rain = 0
KCH1 130404Z 06002KT 23/11 A2989 RMK A01 T02270110  RH  048%=      5-min Rain = 0
KCH1 130405Z 06002KT 23/11 A2989 RMK A01 T02270110  RH  047%=      5-min Rain = 0
KCH1 130406Z 07001KT 23/11 A2989 RMK A01 T02270111  RH  048%=      5-min Rain = 0
KCH1 130407Z 07001KT 23/11 A2989 RMK A01 T02270113  RH  049%=      5-min Rain = 0
KCH1 130408Z 07001KT 23/11 A2989 RMK A01 T02260112  RH  049%=      5-min Rain = 0
KCH1 130409Z 08001KT 23/11 A2989 RMK A01 T02250114  RH  050%=      5-min Rain = 0
KCH1 130410Z 07002KT 22/11 A2989 RMK A01 T02240113  RH  049%=      5-min Rain = 0
KCH1 130411Z 06002KT 22/11 A2989 RMK A01 T02230113  RH  050%=      5-min Rain = 0
KCH1 130412Z 06002KT 22/12 A2989 RMK A01 T02220115  RH  051%=      5-min Rain = 0
KCH1 130413Z 05002KT 22/12 A2989 RMK A01 T02210115  RH  051%=      5-min Rain = 0
KCH1 130414Z 04002KT 22/12 A2989 RMK A01 T02200116  RH  052%=      5-min Rain = 0
KCH1 130415Z 03002KT 22/11 A2989 RMK A01 T02190114  RH  051%=      5-min Rain = 0
KCH1 130416Z 04002KT 22/11 A2989 RMK A01 T02190111  RH  050%=      5-min Rain = 0
KCH1 130417Z 04002KT 22/11 A2989 RMK A01 T02200109  RH  049%=      5-min Rain = 0
KCH1 130418Z 04003KT 22/11 A2989 RMK A01 T02210110  RH  049%=      5-min Rain = 0
KCH1 130419Z 04002KT 22/11 A2989 RMK A01 T02230109  RH  049%=      5-min Rain = 0
KCH1 130420Z 04003KT 22/11 A2989 RMK A01 T02230110  RH  049%=      5-min Rain = 0
KCH1 130421Z 04003KT 22/11 A2989 RMK A01 T02230109  RH  048%=      5-min Rain = 0
KCH1 130422Z 04003KT 22/11 A2989 RMK A01 T02230109  RH  048%=      5-min Rain = 0
KCH1 130423Z 05002KT 22/11 A2989 RMK A01 T02230108  RH  048%=      5-min Rain = 0
KCH1 130424Z 05002KT 22/11 A2989 RMK A01 T02230107  RH  048%=      5-min Rain = 0
KCH1 130425Z 05002KT 22/11 A2989 RMK A01 T02240108  RH  048%=      5-min Rain = 0
KCH1 130426Z 05003KT 22/11 A2989 RMK A01 T02240107  RH  048%=      5-min Rain = 0
KCH1 130427Z 05003KT 22/11 A2989 RMK A01 T02240107  RH  048%=      5-min Rain = 0
KCH1 130428Z 05003KT 22/11 A2989 RMK A01 T02240107  RH  048%=      5-min Rain = 0
KCH1 130429Z 06003KT 22/11 A2989 RMK A01 T02230107  RH  048%=      5-min Rain = 0
KCH1 130430Z 06003KT 22/11 A2989 RMK A01 T02230107  RH  048%=      5-min Rain = 0
KCH1 130431Z 06003KT 22/11 A2989 RMK A01 T02220107  RH  048%=      5-min Rain = 0
KCH1 130432Z 05004KT 22/11 A2989 RMK A01 T02220107  RH  048%=      5-min Rain = 0
KCH1 130433Z 05004KT 22/11 A2989 RMK A01 T02220107  RH  048%=      5-min Rain = 0
KCH1 130434Z 06004KT 22/11 A2989 RMK A01 T02220107  RH  048%=      5-min Rain = 0
KCH1 130435Z 06004KT 22/11 A2989 RMK A01 T02210110  RH  049%=      5-min Rain = 0
KCH1 130436Z 06004KT 22/11 A2989 RMK A01 T02180110  RH  050%=      5-min Rain = 0
KCH1 130437Z 06004KT 22/11 A2989 RMK A01 T02170110  RH  051%=      5-min Rain = 0
KCH1 130438Z 06004KT 22/11 A2989 RMK A01 T02150110  RH  051%=      5-min Rain = 0
KCH1 130439Z 06004KT 22/11 A2989 RMK A01 T02150109  RH  051%=      5-min Rain = 0
KCH1 130440Z 06004KT 21/11 A2989 RMK A01 T02140109  RH  051%=      5-min Rain = 0
KCH1 130441Z 06004KT 21/11 A2989 RMK A01 T02140110  RH  051%=      5-min Rain = 0
KCH1 130442Z 06005KT 21/11 A2989 RMK A01 T02130110  RH  051%=      5-min Rain = 0
KCH1 130443Z 06004KT 21/11 A2989 RMK A01 T02130109  RH  051%=      5-min Rain = 0
KCH1 130444Z 06005KT 21/11 A2989 RMK A01 T02130109  RH  051%=      5-min Rain = 0
KCH1 130445Z 06005KT 21/11 A2989 RMK A01 T02130109  RH  051%=      5-min Rain = 0
KCH1 130446Z 06004KT 21/11 A2989 RMK A01 T02130108  RH  051%=      5-min Rain = 0
KCH1 130447Z 07004KT 21/11 A2989 RMK A01 T02130108  RH  051%=      5-min Rain = 0
KCH1 130448Z 07004KT 21/11 A2989 RMK A01 T02130108  RH  051%=      5-min Rain = 0
KCH1 130449Z 07004KT 21/11 A2989 RMK A01 T02130108  RH  051%=      5-min Rain = 0
KCH1 130450Z 06003KT 21/11 A2989 RMK A01 T02130108  RH  051%=      5-min Rain = 0
KCH1 130451Z 06003KT 21/11 A2989 RMK A01 T02130108  RH  051%=      5-min Rain = 0
KCH1 130452Z 06003KT 21/11 A2989 RMK A01 T02130107  RH  051%=      5-min Rain = 0
KCH1 130453Z 06004KT 21/11 A2989 RMK A01 T02130107  RH  051%=      5-min Rain = 0
KCH1 130454Z 06003KT 21/11 A2989 RMK A01 T02140107  RH  051%=      5-min Rain = 0
KCH1 130455Z 06003KT 21/11 A2989 RMK A01 T02140107  RH  050%=      5-min Rain = 0
KCH1 130456Z 06003KT 21/11 A2989 RMK A01 T02140107  RH  050%=      5-min Rain = 0
KCH1 130457Z 06003KT 21/11 A2989 RMK A01 T02140107  RH  050%=      5-min Rain = 0
KCH1 130458Z 06003KT 22/11 A2989 RMK A01 T02150107  RH  050%=      5-min Rain = 0
KCH1 130459Z 06003KT 22/11 A2989 RMK A01 T02150107  RH  050%=      5-min Rain = 0

Page generated in 0.0555 seconds.